GFSFLT1_prec_cthk_000.txt.gz
RH
22 24 23 25 26 27 27 27 27 27 27 28 29 30 32 33 34 33 31 32 31 32 32 29 29 28 25 21 20 22 28 31
26 28 29 31 33 33 33 34 34 35 37 39 39 38 38 40 40 38 39 39 39 39 38 38 34 32 31 30 27 25 23 24
29 31 33 33 34 34 35 36 37 39 41 43 43 42 44 44 44 46 47 47 49 47 46 45 42 36 34 33 32 31 31 29
31 32 32 34 35 36 38 39 41 42 43 46 47 48 47 48 50 52 55 56 57 56 53 50 47 47 45 39 37 36 34 33
35 35 36 39 40 41 42 44 46 49 51 52 51 51 52 55 57 59 64 64 60 56 54 54 53 52 50 50 47 41 39 38
35 38 39 41 41 42 42 46 49 50 50 51 54 58 63 66 67 67 67 66 59 57 57 60 60 57 57 55 53 49 47 45
34 35 36 38 41 44 46 48 50 51 52 55 58 63 71 73 71 69 68 68 64 62 61 60 60 59 59 58 54 54 52 50
36 37 39 41 44 46 49 51 55 57 59 60 62 70 74 74 72 69 68 70 64 66 66 62 58 55 51 49 48 46 43 41
42 43 45 47 49 53 55 58 60 63 66 67 73 75 76 72 72 72 72 65 64 62 58 54 48 42 38 35 32 31 33 33
48 49 51 52 57 60 61 63 67 73 75 77 77 77 77 78 75 72 70 68 67 63 56 48 40 36 35 35 33 35 35 33
54 56 58 59 62 65 68 70 74 76 77 81 80 81 81 79 76 75 75 70 67 60 49 43 40 37 35 33 34 34 35 33
60 62 64 66 68 70 72 74 77 78 78 81 81 80 79 78 80 77 75 69 59 50 44 41 39 37 35 36 34 32 34 34
62 66 67 68 69 71 75 78 79 78 79 77 80 82 83 81 78 77 71 61 51 46 44 41 37 34 32 30 28 27 30 31
68 72 70 70 71 73 77 79 79 78 80 83 86 85 81 82 79 73 62 54 49 44 39 36 33 30 29 26 25 27 34 35
75 74 72 70 72 75 76 78 77 83 88 87 84 84 83 78 73 64 56 50 42 37 35 32 29 26 26 27 31 37 39 42
80 79 74 74 73 76 77 79 86 91 92 86 87 83 78 73 69 61 50 41 35 32 29 25 26 29 30 34 41 50 59 64
86 84 77 76 77 80 82 86 93 93 86 87 83 79 76 75 67 49 38 31 27 25 25 26 30 32 38 49 61 67 76 81
94 84 79 78 79 85 88 92 92 87 87 83 80 79 77 72 55 37 28 24 23 25 27 32 34 46 63 75 85 88 89 88
93 88 85 84 86 89 95 94 93 89 84 81 81 81 72 61 40 27 23 25 27 28 33 38 53 68 77 83 88 88 89 88

GFSFLT1_prec_cthk_003.txt.gz
RH
24 24 25 27 29 29 29 32 32 34 35 35 36 38 41 41 43 42 41 41 40 40 40 40 42 43 41 39 37 34 31 29
27 27 26 27 28 29 31 32 33 35 35 37 40 44 45 47 45 45 46 46 45 46 49 50 50 51 51 50 47 44 40 37
28 28 29 29 29 30 31 32 34 36 37 39 41 44 47 51 52 50 51 53 56 57 57 58 58 57 58 56 53 51 48 45
28 29 30 31 32 33 35 36 38 38 40 41 44 46 47 48 49 51 55 59 64 67 70 70 68 67 66 64 62 59 52 51
28 29 31 33 34 36 37 39 39 41 44 47 49 52 54 57 58 59 63 68 72 76 77 77 76 76 75 72 68 64 62 58
33 34 34 35 36 38 40 42 44 46 48 51 54 55 61 64 65 71 77 80 81 79 81 81 79 77 76 73 72 70 69 65
39 41 42 42 43 44 47 48 49 51 55 57 60 61 66 71 72 77 83 80 82 81 81 82 81 77 76 74 72 69 67 64
45 46 47 48 48 51 53 55 57 58 59 62 65 68 72 74 73 76 80 76 74 77 77 71 70 69 68 64 62 57 52 51
49 50 52 53 54 55 58 59 60 64 65 67 71 74 76 75 74 79 83 79 79 75 72 71 72 70 66 61 53 47 42 40
57 58 59 60 61 61 64 65 66 68 71 73 74 77 79 79 82 83 82 82 79 78 77 75 71 68 63 54 46 44 42 40
60 62 64 65 66 67 67 68 70 73 73 73 78 79 81 83 86 87 85 82 83 82 77 75 69 61 52 46 45 44 41 39
63 67 69 72 73 68 67 69 70 72 73 76 79 81 83 86 86 86 85 87 83 80 75 69 61 53 48 46 43 42 42 40
70 73 74 74 75 70 69 69 70 73 75 76 77 80 83 88 90 90 89 87 81 77 72 66 58 53 48 44 40 37 37 36
72 75 78 79 77 73 72 72 73 73 74 76 78 82 89 93 92 91 86 81 80 75 67 58 50 44 39 37 37 36 37 36
74 78 81 84 79 74 72 72 73 74 77 81 84 90 93 92 91 86 85 85 78 68 55 45 38 35 34 34 34 35 39 42
77 79 82 85 81 74 73 75 75 78 82 88 94 93 92 93 90 88 86 83 71 56 38 31 32 33 32 34 37 39 42 45
78 83 87 84 79 77 76 75 80 87 93 96 94 93 93 91 90 88 86 72 54 31 30 31 32 34 35 38 40 46 56 63
84 89 86 86 81 77 76 82 89 96 95 94 93 92 90 89 90 85 68 47 31 29 30 34 36 39 42 44 54 67 77 82
87 85 86 84 84 82 85 92 96 96 96 93 91 90 89 87 75 51 33 30 27 30 36 40 42 45 47 61 76 81 83 84

GFSFLT1_prec_cthk_006.txt.gz
RH
23 26 26 25 25 26 27 28 28 30 31 32 34 35 37 39 39 41 41 43 43 44 46 47 47 48 47 48 48 48 47 46
23 26 26 26 26 27 28 29 30 30 33 35 36 37 39 42 45 47 48 48 48 49 52 53 54 55 56 55 54 56 54 53
25 27 26 26 28 29 31 33 34 35 36 38 39 41 43 46 49 52 52 52 52 57 58 59 63 64 64 64 65 63 61 59
26 28 31 32 33 35 37 38 38 39 39 42 43 44 49 52 53 56 55 56 62 66 69 72 72 71 72 72 70 68 67 67
32 34 35 37 38 40 42 43 44 46 47 47 51 51 52 56 59 61 64 66 70 73 76 77 80 78 80 82 80 77 74 69
36 38 39 40 42 44 46 48 50 53 55 54 54 59 59 63 67 69 71 73 75 75 79 85 88 88 83 82 74 69 71 72
41 43 44 45 47 47 51 53 54 56 58 60 59 58 63 66 68 69 71 73 76 81 83 86 83 80 81 72 70 69 68 68
45 47 49 51 51 54 56 57 57 59 61 64 65 64 64 67 70 71 73 74 78 79 79 84 83 82 74 73 73 70 67 64
54 56 60 60 58 60 64 66 66 65 67 68 69 68 68 69 73 78 78 80 81 83 87 86 81 82 85 79 74 69 65 60
60 62 65 65 65 67 71 69 68 67 70 73 74 72 71 72 77 80 83 82 85 89 92 88 92 83 79 75 70 64 60 55
66 66 68 70 71 70 69 68 68 70 72 72 72 72 74 77 81 84 85 90 95 95 94 92 85 80 77 73 68 60 54 49
70 71 74 71 70 69 68 67 67 67 67 70 70 70 75 79 84 87 95 96 96 97 94 84 82 80 74 67 59 54 48 41
70 72 73 70 71 70 70 70 68 65 68 67 65 70 76 79 81 91 94 96 96 91 86 86 82 76 67 58 49 44 41 38
71 74 74 73 72 70 71 72 68 68 68 66 66 72 76 79 86 90 96 95 91 88 88 85 77 65 53 42 39 34 31 31
74 76 75 75 75 77 77 73 69 67 68 69 67 71 78 88 92 94 95 92 90 89 88 77 62 46 34 30 32 35 36 37
77 78 79 79 79 77 77 75 71 69 72 71 77 82 87 95 96 94 92 91 91 85 67 50 32 29 29 35 39 37 36 37
80 83 83 83 81 83 78 77 73 74 73 81 89 92 93 95 95 92 91 88 72 51 33 29 27 29 35 37 40 41 44 45
85 82 80 82 81 82 83 78 73 79 86 92 96 97 96 94 92 92 85 67 41 29 27 27 31 35 38 41 47 50 55 66
81 80 82 83 82 81 77 78 88 89 94 97 97 95 93 92 87 82 61 37 29 26 28 35 36 36 41 48 57 70 77 81

GFSFLT1_prec_cthk_009.txt.gz
RH
21 22 23 24 26 27 27 28 29 32 33 35 36 36 37 38 38 40 40 43 44 44 46 49 50 51 52 53 54 55 55 54
21 23 26 28 31 32 33 33 35 36 38 40 41 41 41 42 45 47 48 50 53 53 53 53 54 57 59 61 60 60 61 61
26 29 31 34 35 35 37 39 41 43 44 44 46 47 48 49 51 53 55 56 56 55 58 59 60 61 64 66 68 68 67 66
31 33 34 36 37 41 43 45 45 46 48 49 50 51 51 53 55 58 60 60 61 61 63 66 67 69 69 71 73 74 73 69
33 36 39 39 41 43 45 47 49 51 52 52 54 56 56 58 60 63 64 64 64 66 68 73 74 74 74 75 76 75 77 74
38 42 44 45 45 48 49 52 54 57 58 59 59 60 61 64 66 67 68 68 68 72 76 79 79 80 81 85 84 81 80 76
44 45 46 46 48 49 53 55 58 57 57 59 59 61 64 69 70 70 71 72 73 75 75 79 82 85 88 91 91 88 81 73
49 49 52 57 60 59 60 63 64 62 64 67 68 69 70 70 71 72 74 74 77 80 83 87 89 88 87 88 91 89 87 82
60 63 65 66 65 63 65 72 69 66 64 66 70 72 72 73 74 72 71 74 77 82 88 92 92 89 92 94 96 86 80 77
65 68 68 69 67 68 74 74 69 66 63 63 64 65 65 68 70 70 72 74 79 85 90 93 92 95 97 90 86 82 76 69
64 67 66 67 68 72 73 72 69 64 64 63 62 63 65 69 72 75 76 82 87 91 97 97 97 94 91 87 84 77 71 66
70 70 71 73 74 75 73 69 64 63 62 61 62 63 66 70 75 77 83 93 97 95 97 95 93 91 90 86 80 72 65 56
68 70 73 73 74 72 68 66 65 63 61 60 61 63 63 66 74 82 86 91 90 94 94 93 91 90 88 81 72 61 50 44
73 76 75 71 69 69 69 68 68 68 64 62 60 57 65 71 73 77 83 87 91 90 88 88 87 81 70 58 46 39 34 29
70 74 74 72 70 68 69 70 73 73 69 61 57 64 71 72 75 81 85 90 87 86 85 79 65 54 43 35 30 30 31 33
73 73 71 68 67 69 73 75 72 69 66 66 68 72 73 76 79 85 89 88 89 87 77 62 45 32 28 30 35 36 37 36
77 75 73 71 70 71 73 75 72 72 74 76 77 82 86 88 93 93 95 92 88 75 54 33 28 29 33 36 38 37 38 41
81 79 75 70 70 72 72 71 72 71 80 85 89 92 97 96 95 93 89 81 62 40 29 27 29 33 37 39 39 43 47 56
78 75 69 66 70 73 70 68 71 75 80 86 89 93 93 91 89 83 70 51 37 29 27 30 34 38 39 41 49 57 70 76

GFSFLT1_prec_cthk_012.txt.gz
RH
22 24 26 28 30 32 33 34 35 37 39 40 41 42 44 45 46 47 48 49 52 53 52 52 54 54 55 55 56 56 57 57
24 26 28 31 33 35 37 40 42 43 44 45 46 48 48 48 50 50 51 53 56 57 58 58 58 58 58 59 60 61 62 63
28 30 36 38 39 41 44 48 49 51 50 50 51 51 51 51 53 54 55 57 59 61 63 63 63 62 62 62 63 63 64 67
35 35 37 40 42 44 47 49 53 55 53 51 50 51 51 51 53 54 57 58 60 62 64 65 66 65 65 67 67 67 66 68
38 38 40 42 43 44 47 51 55 56 54 53 53 52 53 53 54 57 60 62 62 63 65 66 67 69 73 74 73 70 67 68
41 45 48 49 50 51 54 57 59 59 57 56 54 52 53 55 57 60 62 65 66 66 66 68 69 72 74 74 75 76 75 76
54 56 57 55 56 57 59 60 64 65 65 63 61 58 57 58 61 63 65 66 66 68 69 70 72 73 78 82 84 84 85 88
62 64 62 64 64 66 67 70 75 77 78 75 69 65 63 63 66 67 70 74 75 77 74 74 78 79 79 88 89 92 96 93
67 63 64 68 71 71 74 78 78 76 74 72 68 64 63 65 65 65 65 74 77 76 78 83 78 84 93 95 94 98 98 96
62 63 69 73 72 75 76 74 71 71 66 61 60 61 62 63 62 62 65 69 71 76 82 84 90 98 99 98 95 91 91 89
66 67 71 72 71 71 71 75 70 64 62 62 59 58 61 64 63 61 62 67 73 78 85 94 98 97 96 94 91 88 86 82
67 69 71 71 71 71 69 65 63 60 59 59 58 59 58 57 58 62 67 72 76 86 92 93 92 89 89 88 87 85 81 75
69 71 70 70 66 63 61 59 60 59 56 55 54 54 56 59 64 68 73 77 84 86 87 88 83 80 81 78 74 69 61 54
70 70 68 66 62 60 57 55 55 55 56 55 53 56 58 61 65 71 76 78 81 87 87 83 79 78 75 66 56 47 41 37
71 70 68 68 66 64 59 56 57 59 58 57 58 57 62 66 70 74 78 83 87 90 85 80 78 69 56 45 38 31 26 27
80 75 74 77 67 63 58 57 56 56 58 60 64 66 72 75 79 82 85 92 92 86 82 73 61 53 41 31 28 29 30 31
80 76 71 68 64 59 58 58 57 56 60 67 71 81 82 86 89 93 94 90 86 81 71 59 45 34 28 29 32 34 34 33
80 71 68 64 58 61 61 56 56 56 63 70 77 84 86 88 89 89 89 85 76 62 49 41 30 28 29 31 34 34 34 38
68 70 65 62 64 60 57 56 57 59 64 69 76 78 83 86 86 86 78 65 52 45 38 30 28 28 30 33 35 37 42 54

GFSFLT1_prec_cthk_015.txt.gz
RH
27 28 30 34 38 41 43 45 47 47 46 46 47 47 46 46 47 47 47 48 49 50 52 52 52 52 54 54 54 55 56 56
29 30 32 35 41 44 46 46 49 51 52 52 51 48 48 48 48 48 49 50 51 52 53 55 56 56 56 58 59 59 59 59
32 33 36 40 44 47 47 48 53 57 58 55 54 55 53 52 51 50 51 52 54 56 58 60 61 60 59 59 59 59 61 62
38 40 41 45 47 50 53 57 57 58 59 60 61 60 56 54 52 51 52 53 54 56 58 60 61 62 61 61 61 58 59 61
38 41 45 48 51 56 60 61 59 60 61 62 61 60 58 59 57 56 55 57 58 59 60 62 63 65 67 68 66 66 67 67
44 45 46 50 57 63 62 64 65 63 60 61 62 60 59 57 53 52 53 55 59 62 64 65 64 71 73 76 74 72 76 76
56 58 61 62 63 65 65 67 67 64 63 65 64 60 57 52 53 52 53 55 58 62 68 70 72 71 73 83 79 79 84 80
61 61 64 66 67 69 67 66 64 64 61 62 65 65 62 61 59 59 58 57 57 58 63 67 70 75 79 82 81 92 87 90
61 65 65 66 68 66 66 65 65 64 63 62 61 63 62 59 58 57 57 55 55 54 56 63 70 79 79 90 94 92 96 99
64 66 66 66 66 65 64 62 61 59 56 56 56 56 56 54 53 52 50 49 50 54 61 65 71 75 82 91 94 91 94 94
64 65 68 68 66 64 64 64 63 62 62 61 57 51 47 46 47 47 48 52 56 61 67 75 81 87 90 93 92 90 90 90
68 70 71 70 69 69 66 65 64 64 62 58 56 47 44 42 45 49 55 59 65 69 73 79 83 81 82 85 84 81 77 76
72 73 75 76 73 74 70 67 64 61 59 57 55 51 43 42 44 50 58 65 73 81 79 74 77 79 83 81 77 76 71 64
70 74 76 72 71 75 70 67 63 61 58 54 50 46 47 48 50 54 63 74 82 82 82 81 86 88 85 79 75 68 56 48
74 79 77 72 70 67 66 62 59 54 54 55 56 61 64 65 71 72 69 82 88 90 93 94 91 87 80 70 57 47 40 35
72 74 75 69 65 58 53 52 51 53 55 59 64 69 75 75 80 84 82 88 93 91 86 82 77 68 58 52 47 40 34 29
73 70 67 65 60 61 63 62 61 57 53 58 69 74 77 85 89 87 91 94 93 89 82 76 68 56 50 43 37 29 26 24
74 70 67 60 63 67 64 68 71 57 58 60 65 68 74 83 84 94 93 92 89 81 67 57 50 44 38 31 26 25 25 27
68 66 65 66 68 65 71 68 65 65 71 82 84 78 84 88 94 93 87 79 67 58 53 49 43 35 29 25 24 24 28 35

GFSFLT1_prec_cthk_018.txt.gz
RH
31 30 32 35 39 42 46 48 49 50 51 52 52 51 51 51 51 50 49 48 48 48 48 49 50 51 51 51 51 52 54 55
30 30 31 34 38 44 49 51 52 52 58 60 59 57 57 57 55 52 51 52 52 51 50 50 52 55 56 56 56 56 56 57
30 30 33 37 43 49 54 56 60 64 65 65 62 62 62 59 58 58 57 54 53 53 54 54 55 56 58 58 58 58 59 60
34 37 41 46 50 55 59 62 65 65 63 62 63 63 61 61 64 62 58 56 55 55 55 57 59 59 57 59 61 60 60 61
41 45 47 51 54 56 59 60 61 61 60 62 61 59 59 60 60 61 60 58 55 54 53 55 58 60 60 62 63 65 66 65
47 50 53 55 59 61 61 60 59 62 62 60 60 59 60 58 57 55 53 52 53 52 52 54 56 59 60 64 65 68 69 72
53 58 61 61 62 63 63 62 62 63 64 64 66 67 63 58 57 54 53 50 49 50 50 51 53 56 59 64 67 69 72 74
58 60 62 64 65 67 68 68 71 73 72 72 70 66 63 60 58 53 51 48 43 41 38 37 40 45 52 58 64 70 73 79
59 62 63 67 70 71 72 72 74 72 67 63 61 61 61 59 53 47 45 46 44 39 35 33 38 45 53 62 71 76 83 89
61 64 67 69 69 70 70 70 69 70 69 68 68 65 60 55 54 51 48 47 48 45 48 47 47 53 59 69 77 87 87 90
62 63 63 65 68 69 70 70 68 65 61 59 58 57 59 60 57 53 49 56 58 60 63 68 65 70 71 76 84 85 86 86
60 62 65 67 69 71 71 69 66 62 56 50 51 52 51 50 47 45 47 51 55 62 72 72 74 80 72 72 77 80 81 86
64 66 66 68 68 67 63 60 58 56 53 58 62 62 54 47 43 46 50 51 55 65 74 81 84 83 83 86 87 89 86 81
66 67 70 69 67 64 63 61 59 63 63 56 51 48 48 52 52 56 57 64 70 77 86 88 94 97 95 92 88 83 77 69
64 66 68 67 64 60 59 61 64 61 63 61 56 52 49 53 55 61 69 78 83 87 91 92 93 92 87 79 74 65 57 50
67 68 66 65 64 60 58 59 58 59 59 64 64 54 52 56 63 69 78 86 88 91 91 90 86 81 76 69 60 54 50 42
68 69 65 61 59 55 56 60 57 50 51 48 53 59 63 65 73 81 86 95 98 96 93 84 79 68 60 58 55 47 39 32
67 60 57 61 58 56 55 54 52 47 52 59 71 71 75 81 86 89 92 92 88 80 74 67 61 58 57 52 46 38 31 26
67 69 61 50 44 45 47 52 48 49 49 62 70 74 81 84 90 92 88 81 74 68 63 60 58 54 52 44 37 31 28 28

GFSFLT1_prec_cthk_021.txt.gz
RH
33 34 34 36 40 42 46 49 48 49 50 52 57 57 57 58 58 59 57 55 55 51 50 49 49 49 50 50 51 51 51 51
32 33 33 34 36 40 46 51 52 52 55 58 60 60 60 60 60 58 61 61 60 59 54 50 48 49 52 52 52 53 53 56
31 33 35 38 43 48 53 54 56 61 61 60 61 60 59 60 60 59 59 58 56 53 52 50 49 49 49 50 54 53 55 58
36 39 41 46 49 54 58 61 64 63 60 58 59 60 59 59 60 62 61 58 59 58 57 56 55 54 52 53 54 57 57 59
41 44 48 52 54 57 58 59 59 61 61 61 62 62 62 62 62 62 59 60 58 58 57 54 51 51 49 52 55 54 59 61
47 50 52 54 56 58 59 61 64 66 66 67 66 66 67 67 66 60 57 56 55 52 50 48 44 43 43 45 48 48 52 57
53 54 57 58 59 61 64 66 68 67 68 69 71 76 76 69 68 64 61 58 52 50 48 44 42 42 41 41 43 47 49 56
61 61 62 62 65 67 68 68 71 77 76 79 80 74 70 65 61 55 52 48 45 43 42 41 40 36 36 38 45 49 54 59
62 62 63 64 65 65 65 69 69 72 72 68 66 65 62 58 56 56 54 51 47 45 46 44 43 45 47 46 51 59 60 67
59 58 60 63 65 66 68 69 67 65 61 60 57 54 55 57 59 57 51 45 41 41 44 45 49 54 57 58 62 68 75 77
56 59 62 66 68 68 66 65 63 60 58 57 59 62 64 63 58 51 46 43 44 46 53 56 57 64 69 73 72 71 76 82
62 62 63 64 66 65 61 60 59 60 62 63 64 63 57 45 35 34 33 39 45 50 59 65 70 78 85 88 85 89 91 94
57 58 57 58 59 58 57 57 58 63 61 59 57 51 46 37 39 36 43 53 56 63 71 81 86 91 95 97 96 95 94 91
57 58 57 56 58 58 58 59 57 54 53 52 48 45 44 47 49 45 48 60 69 76 81 86 88 91 91 90 88 85 83 76
62 62 60 57 55 53 52 53 50 49 50 50 49 51 53 56 56 52 57 67 76 81 85 89 92 92 88 83 77 70 62 59
68 65 60 56 55 49 44 40 41 43 46 43 43 46 49 53 57 65 72 77 80 85 89 89 86 79 76 72 66 63 60 57
70 65 61 59 52 46 42 41 43 46 45 50 54 55 64 69 74 72 80 84 85 81 80 76 72 69 64 61 60 58 56 51
75 69 64 57 51 43 42 45 45 47 49 50 54 56 65 69 77 81 85 80 74 71 69 65 61 60 58 57 55 53 50 47
70 68 65 59 52 44 42 44 44 47 49 50 56 63 70 75 81 81 77 73 68 66 63 60 56 52 51 49 45 43 44 40

GFSFLT1_prec_cthk_027.txt.gz
RH
50 50 43 46 47 48 50 55 61 60 59 58 61 65 67 70 69 66 63 63 62 62 61 62 62 62 60 61 61 61 60 59
41 42 40 41 43 49 53 56 58 59 65 68 68 70 72 71 69 68 68 69 68 67 65 67 67 66 63 59 60 61 59 61
37 38 39 41 43 46 49 54 58 62 65 66 66 67 69 69 71 69 71 70 71 76 74 78 74 68 61 56 55 54 53 55
39 41 42 45 48 51 55 59 61 64 65 68 67 68 70 70 69 68 73 80 79 75 68 63 62 56 50 50 51 52 52 50
42 46 49 52 55 57 60 61 63 62 62 62 64 67 70 70 70 70 67 62 60 59 57 55 53 51 48 52 54 53 55 48
47 51 55 57 57 57 57 61 63 61 61 63 66 69 68 66 68 64 58 55 54 52 51 48 46 46 45 45 44 45 45 44
49 53 56 57 58 58 57 59 61 62 62 64 65 64 65 66 63 55 54 54 53 49 46 44 43 45 48 47 45 45 42 43
54 55 59 58 55 55 57 59 61 63 62 61 61 59 56 55 56 57 57 50 45 42 40 40 43 42 42 42 42 43 45 46
57 58 58 57 56 59 56 55 54 54 56 55 56 56 57 59 60 58 52 44 41 43 46 45 44 42 48 50 52 52 53 56
57 58 57 56 53 53 54 55 56 57 58 59 59 59 57 56 56 54 51 47 46 48 44 47 48 53 50 55 59 65 70 68
60 58 57 58 56 59 62 62 62 63 64 61 59 57 54 53 53 52 52 51 48 45 47 47 50 52 57 61 67 76 81 87
62 61 62 64 64 64 62 64 64 61 59 56 53 53 55 58 55 58 55 52 46 46 43 45 51 56 64 70 78 83 86 92
65 68 70 68 67 63 64 64 60 57 53 51 52 53 57 59 53 48 50 50 50 49 53 60 67 73 78 83 85 87 87 89
70 70 69 69 67 65 65 59 58 56 57 56 55 58 59 54 51 50 53 55 58 68 74 77 80 85 84 81 79 83 80 76
70 69 69 70 68 66 60 57 58 59 58 58 57 58 55 54 49 51 62 65 72 81 85 88 86 80 74 69 69 59 58 61
68 71 71 70 70 67 62 60 59 61 60 56 60 52 53 52 53 57 60 67 71 76 82 79 64 52 51 42 38 37 36 38
74 72 72 76 73 72 67 68 64 64 62 65 62 50 54 52 53 59 61 67 74 75 54 48 51 50 47 39 36 34 34 35
74 74 79 78 77 72 69 63 59 62 64 59 54 55 53 56 59 62 67 71 56 49 48 51 50 47 45 38 37 39 42 44
77 80 85 83 77 74 68 66 59 59 56 58 53 53 56 57 62 66 68 52 49 48 47 46 46 50 50 45 49 53 56 60

GFSFLT1_prec_cthk_030.txt.gz
RH
49 49 49 48 48 53 55 61 64 68 66 62 63 64 65 68 68 69 66 66 62 61 61 66 69 68 68 67 66 63 62 59
44 47 48 45 46 48 49 54 57 59 61 65 66 68 70 70 68 67 65 66 63 62 61 63 65 63 59 58 57 54 51 51
41 46 49 50 47 49 51 53 56 58 61 67 67 67 68 67 66 66 69 67 64 64 63 59 54 52 49 48 46 43 40 44
40 42 43 45 48 50 54 56 58 61 61 61 62 63 64 64 65 69 69 70 69 65 62 54 49 47 44 42 40 41 44 46
43 45 47 50 54 56 57 58 60 59 55 56 58 60 62 65 67 68 65 63 58 56 53 48 46 44 41 40 42 45 46 44
49 51 53 55 55 56 58 57 56 54 52 55 57 58 59 59 57 54 53 50 50 51 50 49 47 46 44 46 46 46 48 49
53 53 55 55 56 55 55 54 54 56 55 51 49 49 50 51 51 52 53 54 54 53 52 45 42 42 44 47 52 49 48 47
50 52 56 59 59 58 54 51 50 49 49 52 53 55 56 56 57 58 58 56 53 49 47 46 45 45 43 43 43 48 47 46
52 54 55 57 57 56 52 52 52 54 54 55 57 59 60 62 62 59 57 55 52 49 48 47 46 43 45 50 50 48 48 52
54 57 59 57 56 56 56 56 57 56 56 57 57 58 59 58 58 58 55 53 49 45 43 41 42 45 45 46 48 49 53 60
60 60 60 60 61 61 60 58 57 58 60 58 56 53 53 54 56 56 53 49 47 45 44 44 40 40 45 50 54 62 67 70
61 61 60 64 62 62 64 62 62 61 58 57 51 52 54 55 56 57 52 49 44 48 51 48 51 58 63 67 68 72 79 80
68 67 68 66 67 66 67 65 62 61 58 54 58 58 59 60 59 54 49 48 49 51 54 58 66 70 71 74 76 77 69 68
72 71 68 69 70 69 66 64 66 61 62 62 59 63 63 58 49 48 45 45 47 53 60 64 74 79 82 78 62 56 49 47
69 70 72 73 72 71 67 69 68 67 68 68 71 65 55 52 47 45 45 44 49 57 60 66 71 67 53 47 49 45 43 41
69 72 71 72 72 69 71 71 68 66 64 64 62 57 54 51 48 48 49 50 53 57 60 58 51 48 50 55 48 43 41 35
71 69 65 65 67 71 71 65 61 62 57 57 60 62 57 56 53 53 54 57 60 60 52 49 50 55 52 45 41 42 42 42
67 65 65 66 69 68 64 61 60 58 57 58 67 70 67 56 50 58 59 61 62 53 48 49 52 50 47 44 45 48 49 50
68 68 67 69 68 64 62 69 67 63 58 58 57 55 53 51 58 63 64 66 57 51 48 50 48 48 51 48 50 56 59 61

GFSFLT1_prec_cthk_033.txt.gz
RH
47 50 49 50 51 55 62 63 62 62 61 58 61 60 63 66 67 67 68 66 64 61 63 63 60 58 55 53 48 47 48 48
48 52 52 54 60 65 65 67 62 60 57 59 62 66 70 72 71 70 68 65 62 63 64 62 59 55 51 48 44 41 38 37
45 51 57 61 63 59 57 54 55 56 57 60 64 68 69 67 65 66 66 66 65 65 64 61 55 48 46 44 43 40 38 38
45 47 48 50 50 51 49 52 54 55 57 58 58 57 55 57 61 63 65 65 66 65 59 52 49 49 48 46 45 41 39 41
44 47 50 50 51 53 53 52 53 56 56 54 54 54 55 57 58 57 55 53 51 52 52 52 53 51 49 42 42 43 46 48
44 46 48 50 52 51 53 56 57 54 50 49 47 47 49 51 52 53 54 55 56 56 58 58 52 45 45 44 47 48 48 47
49 49 49 48 50 54 57 56 55 54 54 53 54 54 54 54 54 54 54 55 56 56 52 47 45 45 45 44 43 42 41 42
51 51 52 52 51 53 54 54 54 55 54 55 55 56 58 58 58 58 56 55 52 49 45 41 42 46 44 42 42 42 43 41
58 57 51 53 57 57 56 56 57 57 55 54 55 58 58 57 56 53 52 55 50 47 50 50 49 45 42 42 42 38 37 39
64 60 59 58 57 58 59 59 57 55 56 56 55 57 56 54 52 54 55 57 59 57 51 46 42 41 40 40 41 44 46 50
66 68 66 66 66 65 61 60 61 58 59 60 58 56 53 53 57 57 61 64 62 54 47 43 45 46 46 51 55 56 58 61
72 70 73 73 68 65 63 63 64 64 64 62 62 55 55 60 57 54 54 51 47 47 50 51 50 54 56 61 67 68 70 74
76 75 72 69 69 71 70 69 66 65 66 67 61 56 53 51 51 52 52 46 48 51 54 55 58 60 64 67 72 75 69 53
72 68 71 74 74 71 71 67 64 64 66 61 54 47 46 45 45 50 48 46 49 48 56 60 61 62 62 61 55 49 48 52
73 74 73 72 73 72 67 64 64 59 54 47 44 41 43 41 42 44 46 37 44 50 58 66 61 52 49 44 48 49 50 48
69 68 64 61 60 62 63 59 55 50 46 46 47 43 38 39 46 51 47 40 44 54 63 65 62 50 46 50 52 50 45 43
66 64 58 55 55 53 50 48 48 52 54 61 58 55 65 69 67 68 66 60 67 60 63 70 54 46 50 53 52 45 45 47
58 54 51 48 44 44 49 54 56 57 54 59 65 66 66 66 86 95 92 87 80 70 67 74 51 53 57 55 48 46 50 53
52 48 48 51 50 50 50 52 52 49 54 52 56 58 65 75 98 95 91 83 84 82 77 62 54 60 57 53 52 53 55 60

GFSFLT1_prec_cthk_039.txt.gz
RH
41 43 43 47 54 68 75 87 91 92 85 83 77 72 66 66 68 69 69 71 69 68 69 74 74 69 65 60 56 53 49 41
48 51 54 59 69 80 83 85 87 82 79 80 74 66 69 69 69 72 71 70 73 74 76 71 66 63 58 53 52 50 46 42
54 56 67 75 80 72 67 66 65 66 69 66 64 66 64 63 64 64 63 65 66 67 63 60 58 59 59 56 50 47 44 40
62 65 70 69 65 63 63 61 58 56 58 60 60 56 54 52 52 53 54 57 58 57 57 58 58 55 52 46 42 39 37 37
66 64 62 60 60 59 57 56 55 54 52 51 50 50 52 56 58 60 62 59 58 58 59 59 54 51 47 43 40 37 36 38
67 64 64 64 61 57 54 52 50 50 52 53 54 56 59 62 62 61 58 56 55 55 52 49 47 46 46 45 42 41 47 51
71 64 63 61 59 61 61 61 61 63 62 62 63 65 65 63 60 57 56 53 50 46 44 45 48 48 46 44 44 44 45 46
68 70 72 71 72 67 70 67 67 65 66 66 65 62 61 60 59 56 53 49 45 45 48 49 47 42 39 38 39 42 43 44
79 75 71 71 74 72 69 67 67 65 60 60 60 58 57 57 55 53 49 45 45 44 43 40 37 39 38 37 40 44 46 50
61 63 65 70 71 70 71 68 62 60 60 61 59 55 56 55 52 42 38 37 37 39 40 37 35 35 38 39 38 44 47 51
65 70 73 73 79 75 72 69 64 63 63 60 58 53 48 44 39 35 37 39 41 44 42 38 39 37 40 43 47 52 57 58
73 77 80 83 76 79 73 70 68 65 60 56 53 48 41 39 38 38 35 35 42 48 52 48 52 53 50 54 63 63 61 54
75 79 77 76 75 73 71 66 64 58 54 49 44 40 37 39 42 45 43 46 50 57 56 55 72 69 75 72 76 73 64 55
76 74 73 72 72 72 71 65 57 52 49 44 39 40 44 48 49 49 52 52 51 52 59 57 68 82 83 85 76 70 59 51
71 71 72 74 76 67 61 56 50 47 43 41 44 47 51 47 42 41 39 43 52 57 60 64 83 85 88 79 70 58 53 52
71 73 72 70 67 61 55 50 46 41 39 39 40 39 36 33 36 43 46 47 49 46 70 80 89 93 87 75 64 57 55 49
72 72 72 67 59 52 48 42 39 37 36 32 28 28 28 28 31 34 36 39 47 54 86 85 95 94 82 75 61 54 49 48
71 70 66 59 52 47 40 39 37 35 29 29 30 29 32 34 34 33 39 49 58 65 83 90 90 84 80 65 55 50 48 49
65 61 57 52 48 43 40 39 35 30 29 29 29 31 32 33 32 38 45 55 64 67 72 78 80 80 69 53 49 46 46 48

GFSFLT1_prec_cthk_042.txt.gz
RH
48 48 50 53 55 61 67 81 88 93 95 95 93 83 75 72 73 72 69 70 67 64 68 70 64 62 61 58 56 54 49 46
51 53 55 59 65 72 83 90 90 94 88 77 73 69 69 65 63 60 59 57 59 61 61 62 60 55 53 53 52 48 44 39
58 60 63 70 81 84 85 76 71 69 68 64 60 60 59 54 52 52 53 54 55 56 57 54 52 53 52 50 45 40 37 35
63 65 72 72 70 65 63 64 64 62 59 53 49 49 51 55 57 58 59 58 58 56 55 55 55 51 47 42 39 37 34 32
60 54 59 62 61 59 58 59 59 54 55 58 61 63 64 66 66 65 64 62 60 57 53 49 44 40 37 36 34 33 33 34
63 63 64 67 65 63 65 68 67 69 69 69 68 66 70 68 69 64 60 56 53 49 44 37 35 35 34 33 35 35 36 37
62 65 70 73 71 72 73 74 79 76 72 71 71 68 68 66 60 57 53 48 43 38 34 33 33 32 29 30 30 31 32 34
67 69 75 81 78 77 80 80 80 78 76 74 70 68 64 58 54 50 44 39 32 29 30 31 34 34 33 32 30 29 32 37
69 74 71 69 73 76 78 81 81 79 74 68 65 63 57 52 48 42 36 32 30 32 33 35 35 38 38 39 39 39 41 43
60 62 65 69 74 77 80 77 75 75 69 65 64 61 54 47 42 36 33 35 37 41 38 38 39 43 47 52 55 58 58 55
57 62 69 70 72 74 75 73 75 71 68 66 59 53 48 43 37 36 39 40 39 42 46 46 48 48 51 55 64 64 69 69
60 63 66 70 73 74 74 72 71 72 67 61 54 48 45 42 42 42 42 41 43 47 49 51 48 50 53 60 69 73 79 77
62 66 69 73 73 73 71 77 74 65 58 52 49 48 47 46 44 45 45 40 42 47 50 53 51 56 53 67 78 82 81 73
66 69 71 70 69 74 78 69 64 59 54 52 47 44 41 38 37 34 32 36 41 42 46 45 49 56 68 77 83 86 78 72
65 66 65 69 76 74 68 64 59 55 51 46 42 37 32 31 30 28 29 31 34 38 42 51 59 71 85 84 87 86 74 65
63 64 66 71 71 66 61 55 52 51 48 43 36 32 32 30 29 29 28 31 35 40 44 49 61 79 81 87 84 77 69 54
64 66 70 67 63 59 54 53 52 49 42 35 33 32 30 32 32 31 32 33 38 42 46 55 65 71 77 79 76 66 49 43
68 70 65 62 60 57 56 54 50 41 35 34 32 30 32 33 35 34 33 34 42 44 52 56 60 62 67 70 57 45 43 43
70 68 64 63 60 56 55 49 41 36 33 32 31 32 34 36 36 36 35 40 48 45 56 62 64 68 63 46 46 44 44 45

GFSFLT1_prec_cthk_048.txt.gz
RH
50 51 53 56 57 61 67 71 78 83 98 89 89 84 82 73 74 67 61 57 56 55 56 56 58 58 54 47 46 45 41 38
50 51 52 55 61 64 69 74 83 87 85 79 75 65 62 58 59 61 64 65 63 61 57 55 54 52 46 44 40 35 31 32
56 58 56 58 63 66 70 72 68 64 60 60 63 64 66 70 70 69 68 69 68 66 62 59 54 50 45 39 33 29 29 33
51 54 58 62 65 66 68 67 63 60 61 63 69 71 71 75 78 77 74 71 67 62 56 51 46 39 34 31 30 30 31 31
53 55 59 59 58 57 57 61 63 61 64 68 71 74 80 81 80 75 76 70 61 55 49 41 36 33 33 33 34 33 33 33
54 55 55 57 57 58 60 63 62 64 66 69 70 75 78 81 79 78 72 66 56 46 39 36 37 37 38 37 37 38 37 40
54 53 53 56 58 61 62 62 63 64 67 69 73 77 78 77 76 72 67 60 51 44 40 40 40 41 41 43 43 42 45 51
51 53 56 61 62 60 60 63 66 67 69 70 74 72 70 72 73 68 59 53 48 50 50 52 51 48 46 51 56 53 51 57
52 57 59 57 57 57 60 65 67 67 66 66 72 73 75 75 68 58 54 51 48 49 47 48 50 48 55 53 51 54 60 64
54 55 53 55 57 59 63 66 66 64 66 67 70 73 74 64 58 52 52 50 51 49 48 48 46 50 53 51 53 61 57 61
54 52 52 56 60 64 65 66 65 65 64 69 75 76 62 54 52 50 48 44 41 42 41 40 46 46 51 54 59 62 62 58
51 51 54 58 62 66 66 67 65 64 71 81 72 61 52 52 50 46 42 39 39 37 37 37 38 39 49 54 61 60 48 61
49 52 55 57 60 65 67 69 70 73 82 64 55 52 52 49 46 44 41 38 36 34 32 32 38 39 45 37 39 43 56 71
49 52 56 60 63 65 66 72 72 73 65 59 57 53 50 49 48 45 41 38 36 34 35 39 39 40 37 38 46 56 71 77
50 52 58 62 63 64 66 70 73 62 60 59 55 53 54 51 47 44 40 39 37 35 37 35 33 34 37 41 50 63 68 68
48 52 57 59 59 59 73 65 59 63 59 56 55 57 53 49 45 43 41 38 38 36 35 35 34 38 45 54 60 69 71 65
46 52 56 57 59 66 61 65 58 56 54 55 57 54 50 47 43 40 38 42 41 41 42 43 45 50 52 61 68 78 68 49
48 52 53 58 59 62 60 61 59 55 57 59 55 51 46 43 39 39 43 41 41 42 42 47 53 59 63 71 79 71 47 44
49 52 54 58 60 64 68 63 59 57 58 54 52 49 43 42 39 42 42 40 41 37 42 52 62 66 72 80 71 48 46 47

GFSFLT1_prec_cthk_051.txt.gz
RH
49 51 53 58 61 65 68 68 74 77 79 88 88 83 82 82 80 76 66 66 65 67 65 62 62 58 57 55 49 43 38 35
53 53 54 58 65 68 64 68 71 74 77 72 67 66 70 68 65 63 70 71 69 70 68 66 60 57 54 49 43 38 36 35
55 58 60 60 65 67 67 71 77 79 71 65 62 62 64 67 71 70 70 72 73 72 69 69 63 55 47 43 38 35 34 35
56 56 58 59 63 68 72 70 67 63 62 59 63 65 65 64 71 75 76 74 73 72 67 61 53 47 46 45 44 42 39 36
53 53 56 60 63 62 66 65 62 60 61 62 64 65 69 74 78 78 76 74 73 66 61 59 56 50 49 51 49 44 45 45
46 50 56 57 57 58 58 59 59 61 59 62 64 69 71 74 75 73 71 71 69 67 62 57 53 53 56 54 53 52 51 50
45 50 52 52 52 53 56 58 57 54 56 60 64 67 70 72 69 69 72 70 66 62 60 58 57 56 59 58 51 56 56 56
45 48 52 51 52 52 52 54 56 58 59 62 63 64 65 68 72 74 69 60 57 54 53 54 53 55 55 56 57 59 60 63
46 49 50 52 52 52 53 57 59 62 63 62 62 65 66 69 75 71 62 56 54 54 55 52 56 54 53 57 51 61 66 67
44 47 51 52 52 53 56 61 63 63 64 63 62 66 72 79 70 63 57 54 54 52 50 50 46 45 49 53 51 57 67 67
47 50 53 53 54 56 61 63 62 64 65 65 67 70 73 69 63 58 55 54 52 50 47 42 40 41 46 47 49 60 66 64
46 51 54 54 55 57 60 61 62 64 62 74 72 70 64 58 57 56 57 55 52 48 43 42 42 41 45 47 46 53 50 47
45 47 50 51 54 58 59 60 63 62 75 81 68 64 59 56 55 56 56 55 51 47 43 43 41 44 44 45 45 45 41 46
40 44 46 51 53 55 60 62 62 67 70 63 61 59 57 55 56 58 58 56 50 46 47 44 45 40 36 31 35 39 41 49
40 43 47 50 52 56 59 60 64 64 65 63 59 58 56 56 58 59 60 54 52 51 48 47 37 35 37 36 37 44 52 60
39 44 48 49 52 55 59 62 61 62 60 57 58 57 58 60 63 62 57 55 53 55 53 46 47 42 42 45 49 58 64 72
40 45 47 48 52 57 57 58 62 59 60 61 58 58 60 60 60 59 56 54 57 54 45 42 45 49 46 53 56 65 74 80
42 44 47 50 53 54 54 60 61 62 61 59 59 61 60 56 55 54 53 56 54 48 43 42 43 55 52 62 65 72 78 67
42 46 49 52 53 54 60 62 68 65 63 64 67 63 57 54 54 53 54 55 53 45 42 41 41 55 58 65 70 74 67 54

GFSFLT1_prec_cthk_054.txt.gz
RH
40 40 44 47 50 56 59 63 75 71 70 72 75 71 66 65 62 62 61 62 59 59 55 58 59 58 56 53 48 42 37 34
47 49 52 57 59 55 58 68 64 70 75 76 65 51 53 53 55 58 56 54 58 58 59 62 61 61 56 51 49 45 41 39
49 48 51 55 56 52 62 65 68 71 70 60 52 53 53 53 54 52 57 57 61 65 65 63 59 57 54 51 46 42 41 41
51 53 53 56 58 65 66 63 66 62 66 59 55 54 54 54 54 55 60 65 66 63 61 60 55 51 48 47 46 47 44 40
51 55 53 55 56 58 62 61 59 63 61 56 57 56 56 60 64 69 67 67 65 65 62 55 52 50 48 48 48 47 45 44
52 52 50 51 54 58 61 58 61 58 58 57 56 61 64 65 68 67 70 68 67 61 58 55 51 50 50 51 56 55 51 48
48 49 52 54 52 53 55 58 56 55 52 55 59 61 63 63 63 62 65 69 71 63 58 58 54 53 51 50 53 49 45 44
44 44 48 49 50 52 53 53 52 50 52 55 58 60 63 62 63 66 70 76 65 63 58 55 54 52 48 47 50 54 52 40
43 44 47 50 50 50 51 51 50 52 55 56 57 60 61 64 67 66 71 63 59 57 56 54 52 49 47 46 46 50 50 51
41 43 46 47 50 50 50 51 52 51 54 57 60 62 63 74 72 66 63 60 57 52 49 48 49 46 44 43 42 49 51 48
37 41 43 48 49 50 49 53 53 52 56 60 61 64 72 80 74 57 57 56 52 50 52 52 49 46 46 42 42 46 47 45
37 41 44 48 50 49 50 54 56 58 60 63 65 66 79 76 55 57 56 54 54 55 55 51 48 48 47 47 48 47 45 42
38 43 44 47 49 53 55 60 59 58 63 67 67 64 61 57 60 56 56 56 57 57 54 51 51 51 47 44 41 40 38 34
44 47 46 48 50 54 56 56 56 60 63 64 64 65 57 58 56 59 58 59 60 56 51 53 52 48 42 37 37 35 34 35
46 44 45 45 49 51 54 58 61 60 60 64 65 58 57 57 60 59 62 64 60 56 55 59 56 51 43 41 39 41 41 47
42 43 43 45 47 50 55 56 59 59 62 63 62 58 60 63 61 64 66 63 60 60 64 59 53 46 46 43 46 49 52 60
40 42 45 48 49 52 53 56 58 56 63 61 59 62 66 63 70 64 62 66 61 63 62 53 48 43 45 44 51 55 57 66
43 47 50 50 52 53 54 57 55 62 64 65 65 69 73 74 68 65 63 61 61 62 57 50 43 42 39 42 54 62 63 69
45 47 50 52 51 52 54 56 57 66 71 72 77 78 74 69 66 66 64 60 55 54 50 45 40 41 41 47 61 65 67 72

GFSFLT1_prec_cthk_057.txt.gz
RH
37 39 39 41 44 49 54 58 61 66 60 62 69 67 63 54 52 51 51 53 50 52 53 53 52 51 51 49 46 43 41 37
38 42 41 41 44 50 52 58 70 64 65 66 65 60 50 51 52 50 51 54 54 52 50 51 52 52 49 44 42 37 35 35
37 41 46 43 42 46 56 67 67 66 62 65 54 48 49 49 48 48 51 49 49 51 54 55 52 52 48 43 39 38 38 41
35 40 40 43 48 52 56 55 59 58 60 54 49 50 48 45 47 47 49 52 54 58 57 56 55 53 48 43 41 41 43 43
40 41 43 46 49 52 54 58 58 57 53 55 50 46 45 47 50 52 55 54 57 58 59 61 59 55 56 54 46 45 45 45
45 45 47 51 52 53 52 51 48 53 53 51 49 47 49 50 53 57 58 60 58 61 62 62 58 53 50 47 45 46 48 46
55 53 48 45 45 48 50 49 53 53 53 51 50 52 55 58 62 64 64 64 64 63 62 57 54 51 50 49 46 46 45 45
50 48 47 43 44 48 49 50 51 53 50 48 50 54 58 61 64 65 65 68 69 73 61 54 53 52 50 45 47 47 48 50
44 44 41 42 44 45 48 49 50 49 48 50 54 58 62 66 66 64 70 76 76 66 52 52 51 48 48 45 44 41 41 43
38 38 37 40 42 45 49 50 49 46 46 50 56 63 64 62 62 63 79 83 67 52 54 51 49 48 49 46 43 42 44 45
37 36 35 36 40 45 50 52 50 49 48 54 62 62 64 68 70 67 69 56 50 55 53 55 55 52 50 48 46 47 48 48
37 36 38 41 43 44 46 51 56 56 59 64 66 65 67 69 69 72 62 51 55 56 58 59 59 56 52 51 50 50 52 53
38 39 42 45 47 50 51 53 55 60 67 70 68 66 66 73 70 64 54 55 57 59 63 62 59 56 56 54 52 48 41 39
42 45 47 51 55 56 53 56 64 70 75 71 67 66 64 68 68 55 58 58 61 69 64 62 63 62 58 56 52 43 40 39
45 49 52 57 62 61 65 68 70 69 67 63 62 62 68 66 58 58 59 67 71 69 68 64 64 59 59 57 48 41 41 42
50 52 58 71 68 65 60 57 60 63 61 60 60 65 67 60 59 66 69 75 72 72 68 64 61 58 58 52 43 42 48 49
53 57 61 53 52 52 50 53 58 60 60 60 63 69 62 69 73 80 77 75 72 66 64 61 58 58 51 41 39 41 44 58
45 49 50 45 46 48 51 54 55 57 62 65 65 68 76 83 86 80 75 66 59 58 57 54 52 46 42 34 37 40 48 60
43 45 47 50 52 54 54 55 58 62 65 65 75 89 92 85 75 65 56 52 48 48 49 49 41 39 36 33 40 48 56 60

GFSFLT1_prec_cthk_060.txt.gz
RH
33 36 37 39 46 45 44 49 52 66 66 60 63 62 60 59 53 52 46 46 46 47 49 50 48 49 49 47 45 42 39 37
34 36 36 43 45 47 49 50 60 70 69 61 58 60 62 57 51 46 45 47 47 48 49 49 48 49 49 45 43 41 39 40
38 39 40 40 41 46 51 63 63 60 59 58 62 65 58 52 50 46 47 48 48 47 49 50 52 52 51 52 50 45 43 41
43 45 43 43 45 47 51 54 57 59 61 63 64 55 49 50 46 45 43 44 45 48 50 51 53 55 57 53 46 43 42 43
46 46 46 47 49 51 54 62 65 61 62 63 52 46 47 42 42 43 46 49 50 50 52 55 57 59 55 48 47 46 47 46
49 51 52 54 53 54 65 67 61 60 60 54 54 48 42 42 44 47 51 52 52 52 55 58 62 64 54 47 46 51 50 43
52 52 55 56 55 60 60 56 56 57 53 53 48 42 42 45 49 53 55 58 62 63 64 71 71 63 53 47 51 50 42 40
47 50 63 55 54 54 49 52 55 50 50 48 47 46 48 53 56 58 64 65 63 58 71 87 73 58 47 48 47 44 41 43
48 51 53 53 52 47 46 49 50 48 48 50 51 53 55 60 60 72 73 71 72 71 79 69 59 47 47 49 49 46 47 48
45 44 46 48 46 45 45 48 48 49 51 53 55 59 63 64 66 64 69 90 82 68 67 63 51 46 52 53 52 52 53 53
38 38 41 39 38 40 42 47 51 53 55 57 60 67 67 74 72 64 70 73 79 62 60 55 49 57 61 58 53 56 57 54
32 33 34 35 38 41 44 45 48 50 53 58 67 77 75 94 87 80 67 64 63 64 60 55 62 66 68 60 61 61 56 56
33 31 36 38 38 41 42 46 51 55 61 73 78 80 80 96 77 70 77 60 60 60 61 62 68 72 66 61 63 63 60 57
40 43 45 44 42 45 57 61 70 72 80 83 84 84 75 70 67 68 68 59 60 57 62 74 77 69 62 63 60 59 56 47
45 51 50 52 54 59 70 86 84 83 85 79 70 66 64 61 69 68 60 57 62 77 79 73 65 56 57 58 56 54 46 40
50 51 62 62 72 76 82 82 79 75 67 60 59 59 59 66 70 64 62 80 85 76 65 60 58 55 53 52 51 49 40 36
50 63 62 70 74 76 76 76 62 54 54 56 58 62 66 66 66 77 89 83 71 63 62 55 51 50 50 47 49 40 33 36
48 55 56 58 61 66 63 56 49 53 56 59 66 67 67 74 89 83 76 69 62 56 53 48 46 43 41 43 40 36 37 40
48 50 54 56 55 54 52 53 58 60 66 69 71 74 83 89 79 75 63 59 53 48 42 40 34 34 38 37 37 37 37 45

GFSFLT1_prec_cthk_063.txt.gz
RH
37 37 41 45 44 45 45 47 47 56 66 68 64 65 64 62 59 55 51 48 46 47 46 44 45 47 47 46 46 45 41 38
44 43 43 45 49 49 46 44 51 62 68 65 61 62 63 59 60 56 51 47 47 45 45 45 45 46 48 47 47 44 41 41
38 41 44 47 49 51 53 53 61 62 60 60 58 62 62 63 58 52 48 45 45 42 42 45 46 46 46 47 47 47 46 45
34 37 40 41 45 48 52 55 61 61 63 64 68 63 64 61 52 47 45 45 42 46 50 47 46 46 49 53 57 55 53 51
41 43 46 44 45 49 52 55 64 71 65 71 68 64 60 50 47 44 43 45 50 52 50 50 51 55 61 67 66 58 53 49
44 45 47 50 56 58 59 68 71 65 63 68 66 60 47 44 44 44 48 53 52 51 52 58 54 53 65 68 64 62 52 46
42 49 47 51 61 66 71 73 63 62 64 67 58 53 47 46 46 49 52 52 57 64 63 71 75 77 67 63 63 58 45 46
42 47 53 62 73 69 66 66 59 59 62 55 57 55 49 49 50 52 56 56 68 84 63 82 90 82 66 57 55 43 44 46
49 53 60 69 73 63 58 54 50 54 53 58 56 51 51 54 56 60 73 74 84 84 78 72 66 64 60 57 52 44 46 51
42 46 54 60 54 55 48 43 46 49 51 52 53 56 59 60 66 78 74 90 96 97 82 71 56 55 58 55 49 54 63 65
35 42 48 49 46 43 40 42 44 47 49 50 56 66 67 71 75 78 83 90 96 89 65 67 63 54 58 58 68 69 67 63
35 38 43 40 41 40 40 43 44 44 47 54 62 70 72 75 75 88 96 87 79 68 61 62 59 61 67 77 73 62 57 58
40 41 40 43 44 48 46 48 53 58 64 69 73 77 80 77 86 83 77 76 66 64 64 62 61 74 79 65 58 59 58 58
44 45 46 47 52 55 53 53 60 73 81 83 86 88 79 81 77 74 66 61 65 65 65 70 77 69 66 64 56 56 55 52
41 46 50 55 63 71 68 70 75 88 89 87 88 85 81 72 60 60 64 69 66 67 77 76 71 65 59 57 54 50 48 44
43 47 54 59 68 68 76 79 80 87 87 88 80 69 61 56 58 67 69 67 77 83 78 70 62 56 52 49 45 43 43 42
42 47 51 58 70 74 71 74 87 90 88 76 66 60 59 63 67 69 70 86 84 76 68 60 53 49 43 38 38 39 41 34
42 45 52 56 59 61 78 85 85 76 66 60 59 62 67 67 69 78 89 79 73 66 60 52 45 39 36 32 35 37 36 34
43 44 51 54 57 67 66 60 59 57 58 61 65 71 72 77 85 90 79 71 66 59 47 38 37 37 29 29 34 37 39 35

GFSFLT1_prec_cthk_066.txt.gz
RH
48 49 48 48 52 56 58 59 56 55 60 67 68 66 66 65 63 59 54 52 52 50 47 45 45 47 47 47 49 48 44 42
43 45 48 49 48 47 48 50 54 59 64 66 66 63 63 64 59 59 56 56 50 48 47 45 45 47 47 48 46 44 43 42
41 40 41 43 45 45 47 49 54 56 59 62 62 63 66 64 63 61 58 53 48 49 45 46 48 46 46 48 49 50 50 51
40 40 40 43 47 48 50 51 51 55 57 63 72 76 71 67 64 59 55 49 47 44 46 47 46 48 51 49 51 56 59 55
43 42 43 42 42 45 49 51 54 62 69 69 78 83 79 67 59 55 49 45 43 46 50 49 51 56 59 65 64 69 67 58
50 50 51 55 52 56 56 57 61 68 75 72 78 82 79 60 51 48 45 44 47 51 54 59 63 63 70 76 71 59 56 52
52 49 54 57 52 63 62 62 75 72 71 73 82 82 66 51 49 46 46 47 58 65 70 76 79 77 83 80 72 55 47 45
52 49 51 50 56 65 69 69 71 77 67 64 73 68 56 59 52 48 49 57 70 74 77 83 85 92 88 71 62 55 47 46
41 43 45 53 58 72 69 62 57 54 55 65 65 55 62 70 58 57 61 68 74 80 85 97 96 86 74 63 59 51 49 54
31 34 38 49 53 71 55 48 49 48 52 58 53 61 68 55 58 61 73 74 81 81 92 94 88 76 64 59 53 52 59 69
27 28 34 40 47 56 47 51 45 45 50 48 54 54 55 61 71 72 71 74 83 92 87 88 68 60 57 57 61 71 74 64
29 31 35 39 47 51 55 46 43 45 47 50 53 58 68 76 82 77 82 80 81 82 74 60 61 66 65 67 77 72 66 64
42 42 42 46 53 62 59 54 52 54 56 62 66 83 84 86 81 88 97 94 88 61 64 67 70 66 73 81 73 69 60 55
41 46 49 50 55 58 62 68 69 70 74 76 87 85 92 88 84 94 87 67 56 63 76 70 73 80 81 74 67 60 55 49
32 35 40 45 52 60 68 73 80 83 80 85 87 91 91 87 86 81 62 59 65 71 70 79 84 82 73 65 56 50 41 41
39 41 44 48 61 65 69 74 83 83 81 84 95 98 88 83 80 67 62 70 71 71 84 87 80 70 64 54 43 33 33 36
45 48 48 53 61 66 68 70 72 84 88 94 96 87 84 80 68 65 74 71 77 85 83 75 68 67 51 39 32 28 27 26
42 46 47 52 58 62 69 78 70 77 86 79 71 72 71 66 68 72 74 82 87 81 73 68 62 44 36 32 25 24 24 28
42 46 49 53 56 56 60 62 61 61 63 65 67 65 68 72 75 85 85 85 83 77 66 50 36 30 23 21 22 23 28 34

GFSFLT1_prec_cthk_069.txt.gz
RH
56 53 57 59 62 60 62 64 62 56 51 59 63 61 68 71 74 71 61 57 53 51 52 49 43 43 43 44 44 43 42 39
51 53 53 53 56 60 62 63 63 59 59 63 65 68 69 72 78 66 60 55 54 53 47 44 44 44 45 45 45 44 44 44
46 47 48 48 48 50 52 55 59 61 57 59 63 62 64 70 69 61 59 55 51 47 45 44 44 46 45 48 51 50 55 57
40 41 42 43 44 46 47 48 50 56 58 57 62 66 76 78 74 67 59 51 48 45 44 45 48 49 50 54 57 57 61 60
41 41 42 42 42 44 47 51 53 54 57 61 63 75 83 89 83 68 56 51 47 45 44 52 58 60 59 68 70 67 69 64
46 45 47 51 53 50 52 55 57 59 66 74 71 78 91 93 88 67 55 53 47 46 51 60 68 72 72 81 78 75 74 64
53 52 55 56 57 59 59 66 63 68 78 75 74 78 93 93 78 59 62 58 51 51 61 72 73 75 77 86 84 77 68 54
51 55 57 53 57 59 61 70 68 72 80 82 69 68 86 88 65 58 69 61 56 66 75 78 78 78 90 90 85 73 62 48
45 48 52 51 54 57 67 74 74 74 62 54 56 67 80 78 59 67 58 59 68 75 79 81 85 87 92 76 62 56 56 54
35 39 42 44 49 57 68 67 64 58 54 49 56 72 71 65 78 66 64 72 78 79 84 86 92 90 72 60 55 60 61 66
28 29 33 38 44 47 59 63 50 53 50 48 57 65 64 72 70 74 79 87 90 93 87 91 97 79 58 63 66 65 68 72
26 26 27 31 36 41 48 52 58 56 48 50 56 58 62 71 81 86 91 92 95 97 95 90 72 61 69 70 68 72 74 69
31 35 40 38 42 47 50 62 61 53 51 58 63 66 72 84 89 92 92 95 96 94 81 68 69 69 72 72 75 75 69 64
31 31 35 45 49 52 56 61 67 67 72 77 82 88 92 93 95 98 90 93 88 83 70 72 69 74 75 76 76 68 63 53
32 35 35 39 40 47 55 63 70 78 86 88 92 94 95 93 94 97 87 83 83 79 70 68 77 80 80 75 67 64 49 31
34 38 41 44 50 54 64 71 76 80 85 87 92 93 90 96 97 92 80 81 79 65 71 79 80 75 73 67 60 41 26 19
36 41 48 53 59 64 68 74 77 75 82 89 78 78 99 92 76 70 79 73 68 79 81 82 75 74 63 49 30 21 18 17
35 40 47 54 56 59 64 70 66 64 69 66 66 68 67 58 60 71 64 72 79 79 78 74 67 55 39 24 20 18 17 17
39 41 45 50 55 60 63 63 61 59 61 63 66 61 60 63 72 69 81 83 78 75 70 58 50 33 22 19 18 18 18 20

GFSFLT1_prec_cthk_075.txt.gz
RH
84 81 81 78 80 87 92 91 81 71 57 48 44 55 63 67 71 85 79 79 79 70 58 54 51 47 44 39 37 37 41 42
65 59 57 55 53 58 69 89 79 71 61 59 61 68 71 72 80 79 78 83 85 64 59 55 50 44 40 37 39 43 46 49
55 57 61 62 62 61 67 77 78 70 65 62 64 69 68 75 77 76 84 92 81 70 60 54 48 42 39 40 46 51 53 52
50 52 54 58 56 56 61 68 77 74 75 66 66 68 71 69 79 82 82 87 75 70 59 53 46 43 44 46 54 59 63 63
42 46 46 47 50 50 56 64 73 74 74 72 71 72 75 76 75 75 82 92 85 78 71 57 51 49 52 55 59 67 69 70
42 36 40 43 45 46 50 56 59 61 61 67 68 70 74 81 77 79 88 92 93 86 76 60 58 59 59 59 66 73 73 76
54 49 48 48 47 50 54 60 66 65 62 62 65 67 72 78 80 83 86 82 86 87 75 70 63 66 63 67 72 75 76 75
58 54 55 54 54 53 56 59 62 70 65 67 71 69 74 80 82 81 82 83 90 90 76 70 71 69 72 74 79 78 79 80
54 56 59 54 55 53 59 62 61 68 67 73 80 84 84 77 62 71 80 82 87 87 77 73 80 76 81 82 86 86 89 85
51 56 60 59 58 54 57 59 59 62 70 75 80 80 79 69 64 64 71 80 89 86 80 83 86 86 86 91 97 94 86 80
43 47 52 57 57 55 56 56 56 60 67 68 71 71 65 66 64 69 79 88 94 91 87 89 87 92 97 97 95 87 85 85
43 45 46 51 53 53 53 56 57 58 64 64 63 68 66 71 74 76 81 90 98 94 94 95 98 98 97 97 93 90 91 85
34 33 34 37 42 47 51 55 61 62 63 65 72 72 73 74 74 77 89 98 99 98 98 94 95 97 96 95 94 91 89 83
35 32 31 35 40 46 51 57 64 71 72 68 71 73 68 71 80 86 88 90 98 96 97 98 98 97 95 94 92 87 83 75
35 34 30 33 36 41 50 56 60 63 59 62 66 63 68 80 84 83 80 85 83 96 97 94 97 94 89 91 90 84 71 63
25 32 38 37 38 41 46 51 58 60 59 61 67 72 79 84 88 84 72 78 78 79 69 77 80 69 70 72 69 63 54 50
27 27 39 44 47 51 54 54 56 57 58 65 73 79 83 83 81 73 71 73 74 70 76 64 67 70 69 61 51 44 46 41
29 31 35 40 48 49 53 56 60 67 75 76 79 79 82 80 74 72 71 70 70 64 64 69 71 67 58 51 47 43 38 34
28 29 34 40 43 45 49 57 68 72 77 77 77 77 72 73 69 67 66 65 65 68 71 69 63 56 54 50 44 38 32 33

GFSFLT1_prec_cthk_078.txt.gz
RH
82 88 89 93 91 91 89 86 79 74 76 78 81 85 85 84 78 78 77 57 67 87 88 74 57 53 49 46 40 38 36 39
60 63 64 76 84 88 80 74 72 69 65 56 61 64 62 58 68 81 84 77 79 81 81 61 57 54 49 42 39 39 40 46
49 60 62 56 57 69 76 79 66 56 55 43 47 54 59 70 79 77 81 78 81 88 76 64 58 53 45 42 40 43 49 52
42 49 52 52 47 46 55 63 68 66 65 58 57 58 69 66 75 85 73 76 84 90 82 71 62 53 48 45 45 49 54 58
39 38 40 42 41 43 47 55 61 59 58 63 58 59 62 61 61 69 72 74 83 91 89 79 70 63 54 51 53 57 59 65
46 41 42 42 39 39 43 51 56 58 55 60 59 63 62 66 66 73 72 79 83 90 87 93 86 76 69 63 66 65 64 71
50 49 49 51 49 49 48 54 58 60 62 62 64 65 69 67 66 68 75 82 86 88 85 86 86 81 74 70 66 69 72 78
50 51 49 52 55 52 53 53 55 58 64 67 64 67 73 75 69 74 75 76 76 87 88 85 90 86 78 74 75 78 79 85
49 53 52 50 49 52 52 53 56 59 58 66 67 69 75 76 77 78 70 64 65 71 78 85 92 91 86 85 83 84 86 89
52 58 57 53 52 49 50 53 55 57 61 60 66 71 75 76 76 75 65 57 67 76 82 86 91 94 92 92 88 91 94 96
42 54 59 57 57 54 55 56 57 59 60 59 58 63 68 70 72 70 66 76 81 82 82 89 96 98 97 95 95 93 97 95
36 43 54 59 60 64 53 57 61 61 59 59 61 64 70 75 74 77 80 84 81 83 90 98 98 98 98 96 97 97 94 94
34 31 40 54 63 56 51 48 56 59 63 64 61 73 77 75 80 82 80 79 83 82 82 91 95 98 98 97 97 96 96 93
39 34 33 31 39 48 50 45 46 57 69 73 70 74 76 79 75 74 76 85 89 87 83 78 80 87 88 97 95 83 86 88
35 41 39 32 30 34 46 50 54 65 64 62 69 80 72 74 79 77 86 92 93 92 76 71 89 74 74 67 73 78 71 69
39 34 41 42 34 38 42 49 49 53 60 67 62 65 70 79 83 87 93 95 96 82 79 76 75 71 68 66 62 68 70 64
39 31 29 41 47 42 44 52 56 60 59 61 65 71 72 79 89 89 90 92 86 78 73 74 75 73 62 66 69 68 59 52
27 28 30 46 44 40 41 44 49 52 55 60 67 72 84 85 84 88 86 81 78 73 74 71 65 63 69 69 61 56 54 47
26 25 33 39 39 38 39 43 46 50 58 63 68 77 84 84 80 78 79 76 73 72 70 66 69 69 64 61 62 56 50 45

GFSFLT1_prec_cthk_084.txt.gz
RH
61 72 74 78 79 84 85 94 84 87 85 87 88 87 89 88 87 85 87 85 82 75 71 66 68 67 80 70 55 45 41 36
51 56 69 76 80 85 88 86 89 88 85 88 88 91 92 89 86 87 86 88 81 73 71 72 71 81 71 62 51 45 41 38
39 40 52 67 70 68 67 68 68 75 77 78 81 84 79 78 79 79 77 74 72 73 81 82 86 79 65 53 51 47 42 41
34 39 36 38 52 59 53 51 51 53 55 60 64 68 72 75 72 74 72 76 76 80 82 78 83 76 70 66 64 60 56 51
35 37 34 36 38 40 39 42 42 43 48 48 50 52 52 57 59 62 64 68 75 84 81 78 82 86 88 87 83 80 76 70
35 37 41 41 40 42 42 42 45 43 42 43 44 46 49 49 51 53 53 58 65 75 75 80 87 86 88 85 85 83 79 77
44 38 43 46 48 45 44 44 49 49 47 46 46 45 47 51 54 57 62 62 64 73 75 80 83 89 90 86 81 82 82 83
48 47 43 46 42 47 48 48 49 51 52 52 53 54 56 56 62 67 69 68 70 75 79 81 78 74 72 75 81 81 82 85
47 47 48 44 45 42 42 44 47 50 52 53 53 55 60 60 60 62 66 70 77 77 76 77 65 68 76 85 79 83 81 97
40 46 48 49 51 49 43 39 43 45 48 52 54 52 57 60 61 60 61 73 80 81 80 79 74 78 82 78 79 79 91 92
43 47 48 49 48 54 60 59 57 51 53 48 47 51 53 58 60 65 63 66 76 83 89 89 89 86 84 83 78 83 77 78
43 41 37 44 45 52 61 67 68 64 59 52 55 54 52 56 61 64 69 71 78 85 90 92 91 85 85 83 82 85 72 71
37 38 35 33 36 43 48 58 64 65 64 54 52 56 68 78 67 74 84 92 92 92 90 94 89 82 85 87 83 84 72 72
38 42 46 40 31 32 36 46 53 56 55 58 56 52 56 60 64 75 89 94 84 89 91 90 87 85 87 90 89 84 72 78
39 42 46 42 33 26 24 24 27 33 43 43 44 44 53 58 70 89 98 85 77 79 86 86 89 89 89 86 87 88 71 80
39 38 42 40 31 31 28 25 25 27 27 34 49 62 69 74 80 89 70 73 80 80 85 86 86 86 84 82 85 75 81 76
36 38 41 39 37 35 34 35 33 31 35 44 50 53 56 59 63 63 60 68 73 77 82 86 82 77 76 91 85 80 85 77
38 40 42 41 36 33 32 35 35 38 47 51 51 48 50 53 54 58 61 69 73 74 75 78 81 77 78 77 76 96 85 73
42 41 39 39 37 32 34 36 40 46 49 48 44 46 49 50 53 56 59 62 67 71 75 76 76 86 81 69 85 88 76 78

GFSFLT1_prec_cthk_087.txt.gz
RH
48 66 76 76 78 76 82 80 85 90 86 89 87 71 70 81 86 86 82 81 81 79 74 71 69 63 66 64 76 72 52 44
40 59 77 79 76 80 86 91 90 92 88 89 84 78 78 84 85 87 85 86 83 76 72 65 63 65 67 76 74 59 52 42
31 41 66 76 83 85 85 83 89 87 90 87 84 84 85 90 85 86 87 87 79 75 68 64 64 70 76 76 63 61 55 46
35 36 41 58 59 62 62 71 78 81 83 82 83 82 84 87 83 84 79 82 79 79 77 72 78 84 80 74 73 67 68 64
37 38 35 37 41 45 42 44 51 60 70 74 76 79 78 76 77 75 75 76 76 75 78 81 85 86 82 79 77 79 79 81
33 35 41 37 38 35 38 38 40 47 53 55 56 58 61 67 66 65 64 69 73 74 78 83 79 79 82 86 86 86 85 86
43 34 41 40 38 36 35 37 37 42 45 47 46 48 50 51 53 53 55 59 62 65 67 73 76 81 84 87 90 92 92 82
44 38 38 43 39 40 39 38 37 39 41 45 49 50 51 52 54 58 59 60 58 58 63 71 76 80 82 85 80 77 77 82
45 41 40 40 43 37 36 35 35 37 39 40 42 43 46 49 51 53 54 56 61 66 70 77 81 78 75 70 69 77 80 87
43 42 44 47 48 49 45 40 38 44 48 47 45 44 45 51 51 51 53 59 61 69 78 79 77 81 79 77 79 81 82 75
43 42 45 45 51 50 55 60 56 61 60 59 57 53 53 53 54 57 60 63 66 67 75 82 83 84 89 91 88 90 88 87
41 39 44 40 44 51 52 56 66 67 68 68 66 59 61 63 60 60 65 75 79 81 83 86 93 97 97 91 86 83 84 85
37 38 38 44 39 40 42 48 58 69 72 72 67 58 58 59 61 69 76 75 76 88 94 94 97 98 96 96 90 88 87 87
42 40 42 43 47 42 37 41 48 62 70 71 66 58 59 59 58 59 63 70 89 98 98 93 92 93 94 93 90 87 89 83
45 42 40 43 45 42 35 30 32 35 37 41 47 51 49 52 58 69 78 91 93 74 75 78 81 88 92 92 85 86 86 83
47 42 40 39 42 39 35 32 31 30 28 29 29 35 41 57 70 73 77 83 87 79 69 80 78 82 85 86 86 81 79 79
46 43 40 41 43 41 37 33 30 28 28 30 32 44 53 58 60 63 71 69 66 71 71 71 74 75 79 85 83 83 78 88
41 40 38 39 43 43 40 38 33 34 36 39 45 49 53 54 54 57 60 58 67 64 64 64 69 78 87 84 82 80 90 95
42 41 38 40 40 41 42 42 37 41 44 49 52 52 49 46 52 57 57 58 57 60 65 70 75 87 85 87 84 96 90 91

GFSFLT1_prec_cthk_090.txt.gz
RH
37 56 73 76 77 84 84 83 88 94 93 95 94 85 83 86 88 85 80 79 79 76 79 80 77 78 76 76 77 74 70 71
34 49 72 80 75 79 82 84 89 89 90 94 91 89 79 79 82 81 80 88 86 84 84 81 80 78 74 74 68 72 80 63
33 37 60 77 78 76 81 88 92 92 93 91 95 91 90 82 84 84 83 88 88 88 84 84 80 77 68 66 72 81 70 59
39 34 41 56 66 75 82 85 92 93 92 88 92 88 91 86 85 85 89 92 90 87 88 78 70 67 66 72 76 76 69 65
41 41 37 35 50 57 59 69 77 82 87 88 91 88 86 85 85 90 92 91 91 87 84 69 64 65 68 78 81 81 81 78
42 35 42 37 38 39 42 50 55 61 67 77 80 83 81 79 77 80 86 84 81 81 75 70 73 75 81 87 86 85 86 88
45 37 41 44 42 40 42 42 44 47 50 51 56 61 67 71 73 75 75 76 78 76 76 77 78 77 83 86 88 87 88 92
40 39 38 43 41 43 41 41 43 45 48 47 46 47 51 52 56 61 61 61 60 61 63 66 70 78 78 79 81 85 93 96
39 40 38 41 46 41 37 39 40 39 43 42 43 46 46 48 53 59 60 61 60 59 59 63 68 72 72 74 79 90 95 85
37 41 38 40 43 48 44 41 38 39 43 42 41 41 43 45 49 53 58 61 61 61 61 64 70 71 72 73 79 79 81 81
40 39 38 42 45 47 52 55 48 44 47 50 51 51 49 48 48 53 56 60 60 61 62 61 64 76 87 89 88 87 90 92
38 36 38 39 43 42 51 54 59 61 61 60 58 57 56 55 56 57 57 55 57 61 68 75 81 85 86 92 96 96 96 93
39 37 40 42 42 41 37 43 51 55 63 66 69 65 61 59 57 58 60 63 70 77 83 88 92 95 97 94 95 98 94 88
35 38 40 40 43 48 41 37 38 44 55 67 72 75 69 64 59 63 67 69 74 79 84 93 89 83 95 96 98 94 98 96
37 42 40 38 42 49 41 34 31 34 36 40 45 47 52 60 66 62 61 62 72 81 91 91 82 75 74 82 83 84 89 92
47 44 42 40 38 44 45 41 35 32 31 30 26 29 31 35 40 50 62 76 80 80 83 85 85 84 81 78 78 76 81 87
48 46 45 42 39 41 43 45 44 39 34 31 33 36 39 43 49 62 68 67 68 74 76 78 75 75 80 80 74 77 80 85
46 43 43 41 39 39 43 46 47 46 45 42 41 45 53 60 60 62 65 67 64 64 66 60 65 64 61 66 70 75 88 93
49 43 40 40 42 42 44 44 46 48 50 50 50 56 62 62 61 59 60 60 66 64 61 61 63 65 65 66 72 73 93 98

GFSFLT1_prec_cthk_093.txt.gz
RH
40 38 58 70 73 78 81 77 82 96 98 98 98 96 95 96 95 91 92 85 73 69 69 71 74 75 77 78 81 84 85 79
41 34 58 76 72 73 78 80 87 92 97 98 97 96 97 92 91 90 90 90 86 80 77 77 78 81 78 79 80 84 83 77
45 29 47 69 74 72 73 80 92 91 95 98 97 97 92 86 91 91 92 94 88 86 82 84 84 84 82 81 78 80 80 79
45 33 33 49 68 74 76 79 85 91 93 92 96 91 86 87 87 86 92 89 91 90 94 90 87 85 83 78 77 74 77 83
45 38 32 33 47 61 70 76 87 93 95 94 91 90 91 90 89 87 87 88 86 90 91 90 87 86 83 78 70 72 82 80
44 38 36 34 36 39 51 56 61 76 83 87 87 89 93 91 89 90 86 84 85 89 92 92 87 78 70 69 73 80 84 87
42 42 39 38 38 38 41 45 48 54 61 75 80 85 87 85 86 86 82 83 84 88 91 88 78 75 72 80 82 88 90 92
37 37 35 36 38 38 38 41 45 49 52 54 59 66 69 71 75 74 72 74 78 82 82 78 77 78 78 80 82 86 87 89
35 37 35 32 35 36 37 38 40 44 45 50 54 54 56 57 58 60 59 59 66 66 71 71 72 72 73 79 79 77 77 78
39 42 37 37 35 39 38 38 38 38 38 42 45 47 50 50 53 55 58 61 63 58 59 60 64 65 67 71 72 70 76 77
44 47 42 40 39 42 44 45 43 40 39 47 49 47 45 46 48 53 55 58 59 60 60 60 63 65 67 71 71 75 78 79
43 48 43 41 40 41 45 48 53 55 52 51 54 58 59 57 54 54 53 56 59 62 63 65 67 70 74 78 79 81 86 94
42 44 42 41 41 43 42 39 48 58 62 60 58 60 62 61 57 56 57 61 64 63 64 66 69 74 76 82 87 91 94 95
45 43 41 41 43 42 44 44 41 44 52 53 58 62 69 72 70 66 61 65 66 66 67 69 76 86 94 95 89 82 85 91
47 40 41 42 43 40 41 40 37 37 41 42 42 49 53 56 69 73 73 70 66 65 72 75 78 84 90 88 77 83 82 77
47 42 39 43 44 42 42 43 40 38 37 36 34 36 36 36 41 47 51 56 61 67 74 83 86 87 85 86 86 83 80 77
43 41 42 45 45 44 42 45 45 46 44 41 40 39 37 36 38 40 45 54 62 69 74 76 74 75 75 79 74 73 77 76
54 45 43 45 47 43 42 43 46 47 48 50 52 51 47 46 48 57 62 67 68 67 68 70 65 67 69 67 68 68 72 70
46 48 51 49 45 44 41 43 46 50 52 52 53 57 58 59 58 61 68 70 65 62 62 67 68 67 62 64 66 68 69 67

GFSFLT1_prec_cthk_096.txt.gz
RH
39 39 27 43 68 70 74 79 78 80 94 96 97 99 98 95 98 98 97 96 90 70 60 63 63 65 69 72 76 78 82 83
38 39 25 46 68 69 73 74 73 81 95 97 99 99 98 98 98 99 99 95 86 67 68 64 67 68 73 74 78 80 83 85
37 39 26 40 66 66 70 72 75 82 90 97 98 99 99 98 99 98 98 95 82 72 69 69 71 74 77 78 80 81 79 84
38 39 29 33 57 66 69 74 78 83 88 96 96 96 98 98 98 98 96 93 86 78 78 76 77 80 81 83 82 82 80 82
38 38 33 28 41 55 63 71 77 81 90 94 96 97 97 97 95 97 94 94 94 90 86 84 85 84 84 84 84 83 81 81
36 39 33 30 33 39 46 55 65 77 84 90 90 91 93 92 94 91 89 91 92 94 92 89 90 92 88 86 85 80 77 73
35 39 31 34 36 36 38 42 45 58 67 81 84 86 85 86 92 93 91 91 94 94 93 89 91 91 88 80 76 73 64 71
36 35 32 29 34 37 38 38 40 47 52 60 75 82 83 85 87 91 90 89 92 89 89 87 86 83 73 70 69 67 72 82
37 32 33 31 33 35 38 38 38 40 45 50 55 63 65 68 71 74 75 77 76 75 74 75 74 76 74 78 81 78 77 81
39 33 38 37 36 37 36 41 41 39 37 43 47 49 52 56 59 60 62 65 65 65 64 63 65 69 75 74 73 71 73 77
42 39 41 41 39 42 43 41 42 46 43 43 43 43 46 50 51 53 55 57 59 59 60 61 64 65 66 67 68 70 74 76
42 43 44 44 43 44 44 47 48 48 50 50 50 53 55 54 53 52 52 54 56 59 60 62 64 65 67 73 75 76 78 80
43 46 46 47 45 42 42 43 46 50 52 53 56 59 61 64 67 68 63 60 62 65 69 70 71 72 74 76 76 78 82 83
48 48 50 47 46 45 42 47 45 48 51 55 58 58 57 60 66 70 70 66 64 66 68 71 72 71 70 70 72 78 86 92
50 51 49 47 46 46 45 46 47 48 50 50 52 52 51 54 64 62 68 71 70 68 69 69 67 69 76 83 86 88 90 89
51 50 47 45 46 45 48 46 47 45 48 49 45 43 43 44 44 50 58 67 69 75 76 67 69 75 83 84 89 91 90 86
50 51 49 46 47 48 50 50 49 45 47 49 49 46 43 39 38 39 41 44 47 50 55 65 71 75 80 81 88 85 80 76
49 49 49 48 49 55 54 52 51 52 53 55 56 57 55 53 52 52 52 52 56 61 68 73 74 72 72 74 76 73 72 73
48 55 49 49 47 51 57 55 51 53 58 59 61 63 66 65 65 65 65 64 69 69 73 75 74 69 68 70 69 71 67 64

GFSFLT1_prec_cthk_099.txt.gz
RH
41 44 43 34 37 58 63 67 71 71 71 72 81 88 91 91 96 98 96 95 95 91 82 86 88 84 74 71 70 75 72 73
42 44 41 34 37 60 62 69 72 70 71 80 87 89 92 92 91 95 98 97 98 92 88 94 91 78 69 70 73 77 77 80
41 43 38 34 36 54 63 64 69 70 74 83 88 94 98 97 93 95 97 98 97 95 93 87 83 77 74 76 79 79 82 79
40 42 37 33 35 42 57 65 70 76 79 83 97 97 98 99 99 97 99 99 97 95 91 84 82 80 79 80 77 80 81 80
39 41 36 31 34 38 46 59 69 77 80 87 95 98 98 98 98 98 99 99 96 93 94 90 81 83 84 81 80 82 86 83
35 38 37 31 31 37 39 47 55 65 79 85 90 92 94 96 96 98 98 95 93 94 92 87 84 90 87 81 81 84 84 84
35 37 39 30 29 33 37 39 45 54 63 78 86 90 92 94 98 97 98 98 96 93 92 88 88 85 84 83 84 85 82 80
37 38 38 33 29 31 35 36 38 45 54 62 78 90 90 94 94 96 97 96 95 93 93 92 89 91 90 86 84 84 80 74
38 40 37 34 29 31 34 36 36 39 50 54 57 69 83 89 92 91 93 94 93 93 95 93 88 87 82 77 75 77 78 78
39 40 37 36 32 32 34 36 38 40 42 46 49 54 60 60 64 70 74 79 77 77 80 79 78 76 72 73 71 72 75 76
40 40 40 40 37 34 35 36 37 40 44 44 44 44 48 52 53 56 59 65 66 66 68 68 68 67 66 64 64 70 73 76
40 42 40 43 44 37 40 39 39 42 43 46 51 50 50 51 51 52 53 56 60 61 62 61 61 62 63 63 63 66 71 75
39 45 41 44 46 42 43 43 42 42 44 45 47 53 58 60 62 63 66 67 63 61 62 61 60 60 63 66 68 70 74 76
41 44 43 48 50 46 45 46 47 48 46 46 46 48 57 61 62 63 67 71 71 69 68 66 66 68 70 72 71 70 74 77
47 49 50 50 52 49 47 46 48 48 47 47 48 49 51 56 57 57 59 69 69 71 71 67 68 70 73 73 70 71 75 82
49 53 52 52 52 51 50 46 46 48 48 46 47 50 52 53 53 52 51 52 62 70 74 78 79 83 80 69 72 76 81 86
55 51 53 49 50 51 54 49 43 48 48 46 48 51 52 49 48 48 49 52 54 57 60 62 63 60 57 69 77 82 82 87
56 58 54 56 56 55 54 54 55 52 53 51 47 48 52 58 59 60 59 58 59 56 56 59 63 67 70 77 82 84 80 80
57 58 58 54 56 56 55 56 63 59 58 57 55 57 60 61 63 63 65 67 68 72 73 75 77 79 81 86 89 85 82 78

GFSFLT1_prec_cthk_102.txt.gz
RH
43 44 40 42 34 31 44 53 57 64 64 63 64 70 75 83 85 85 92 97 96 91 83 87 87 84 90 88 79 71 68 64
43 44 40 40 33 32 42 51 57 68 69 68 67 70 76 88 93 92 93 96 97 95 88 87 94 89 91 85 79 77 71 68
42 43 40 38 33 33 39 54 55 59 63 65 71 75 77 89 94 91 92 98 97 96 91 87 87 89 97 86 81 78 74 76
40 42 40 37 33 34 37 45 57 60 63 68 74 79 88 95 95 95 92 97 97 96 94 89 87 87 90 87 83 81 79 82
37 40 40 36 33 34 39 42 48 58 64 68 74 82 92 96 95 96 96 97 98 98 94 92 88 90 91 88 86 86 87 84
36 37 37 35 33 32 37 42 43 46 56 70 78 82 85 93 98 99 97 100 98 98 95 93 91 94 93 91 90 87 84 88
36 37 36 35 32 31 35 38 40 42 50 58 76 83 86 88 97 98 99 99 99 98 97 92 94 95 95 92 92 86 87 86
34 37 37 36 31 30 33 37 37 37 45 54 63 80 86 87 87 92 97 98 98 97 94 92 93 96 96 93 86 89 86 81
35 36 40 37 32 30 32 35 36 38 39 46 57 65 81 89 87 87 91 93 92 94 94 94 94 96 94 89 96 90 80 76
36 39 41 37 33 32 33 35 38 39 40 42 47 56 62 70 83 83 85 89 93 93 92 92 92 92 89 93 90 85 78 75
39 43 43 38 36 34 32 35 38 41 43 44 46 45 50 55 61 61 64 71 78 81 82 81 82 83 84 77 75 74 74 72
45 43 44 43 39 40 35 37 39 41 44 45 45 50 50 51 51 53 54 57 60 65 67 72 73 72 71 69 70 70 66 66
48 45 45 46 41 43 40 40 41 43 44 45 47 49 52 57 57 57 57 62 68 67 62 63 62 62 64 65 67 67 70 73
51 49 49 47 44 44 46 43 45 46 49 46 46 47 50 55 62 66 66 69 72 74 75 70 67 66 66 69 72 73 75 79
51 56 51 49 49 49 52 48 47 49 50 50 48 47 49 52 57 62 63 65 68 74 74 78 77 76 75 74 76 79 85 86
58 55 56 54 55 55 57 53 52 51 51 51 51 51 51 52 56 57 57 60 62 64 65 77 80 80 81 86 86 86 73 68
60 62 56 60 58 61 60 57 53 51 49 51 54 54 52 57 60 57 55 55 56 57 56 55 57 59 52 55 59 67 72 78
49 56 65 60 61 60 58 57 54 53 48 51 56 56 56 56 60 62 63 63 62 64 64 64 66 66 67 72 78 82 85 86
52 54 60 65 67 58 57 58 58 58 53 55 61 61 60 58 59 61 65 66 68 68 70 74 76 76 79 85 91 94 91 88

GFSFLT1_prec_cthk_105.txt.gz
RH
34 38 38 40 37 34 33 39 54 59 64 66 66 68 76 79 81 88 90 91 85 84 86 77 82 75 74 73 69 70 67 65
34 37 40 40 38 33 28 36 55 59 66 69 70 71 71 74 77 80 87 87 90 91 89 85 78 80 77 77 81 78 76 75
39 38 39 39 38 30 27 35 49 58 59 61 65 68 71 80 81 80 83 87 89 93 92 86 85 89 82 84 86 88 81 77
38 39 38 39 38 28 27 34 42 55 61 62 64 68 74 80 88 90 91 91 92 95 94 89 87 92 91 93 94 91 79 77
36 38 36 36 35 28 28 33 38 47 57 64 69 69 75 78 89 97 94 95 95 96 97 92 90 94 98 95 95 93 85 86
34 35 33 35 34 26 26 32 37 42 50 56 63 70 75 82 91 97 100 96 97 96 97 94 93 92 94 93 92 91 92 92
34 36 34 36 33 26 26 32 35 39 46 57 61 74 83 82 91 95 99 98 98 98 98 96 95 97 94 93 95 94 94 94
38 39 35 36 32 24 26 31 33 36 42 51 59 68 82 82 88 94 98 98 99 99 98 97 95 93 91 91 93 96 95 92
43 41 38 36 32 25 25 31 33 36 38 46 53 64 79 87 87 89 94 96 98 99 99 99 98 95 93 94 96 95 92 93
42 44 37 34 35 26 27 32 35 35 36 44 50 56 66 80 88 90 95 95 98 98 98 98 95 95 95 97 95 92 91 93
42 40 36 37 35 28 29 32 36 36 37 41 48 53 53 61 71 76 81 85 88 94 96 94 94 95 96 94 93 90 89 84
44 42 37 38 38 32 30 33 37 38 40 42 44 49 55 54 55 60 64 72 77 80 85 88 86 85 86 89 88 82 78 80
55 50 46 41 41 37 36 35 37 39 42 45 46 46 51 56 59 59 59 60 60 66 68 69 70 70 72 73 70 69 74 72
74 65 50 43 44 42 42 41 40 42 44 49 47 46 47 52 57 63 64 65 67 68 69 67 67 68 68 66 66 69 74 79
71 74 54 47 50 47 46 48 46 47 46 48 50 47 46 49 54 61 67 65 64 68 73 77 76 78 75 74 77 80 83 86
60 71 78 51 53 50 50 51 52 50 51 49 50 49 50 49 53 57 58 62 66 68 67 67 64 81 82 84 87 92 93 86
54 64 73 78 55 52 53 55 56 53 55 52 52 50 52 54 53 55 58 59 59 58 57 61 62 58 59 73 74 71 69 73
56 57 63 69 78 55 54 60 62 59 58 56 54 54 56 57 59 60 59 60 58 61 63 66 69 70 71 75 77 82 86 89
56 57 58 65 71 70 59 60 61 62 62 58 57 57 61 65 66 63 61 61 66 68 72 77 77 77 77 79 83 87 89 86

GFSFLT1_prec_cthk_108.txt.gz
RH
37 35 37 39 39 39 38 33 25 40 53 60 69 75 81 84 93 98 97 95 93 82 79 65 57 60 57 52 53 55 58 59
41 37 40 41 44 42 38 29 27 36 55 62 67 68 69 75 80 87 91 95 91 83 75 64 68 65 65 63 64 65 70 67
39 40 41 44 45 43 38 27 28 34 50 60 64 69 73 69 72 79 86 92 91 83 81 73 70 73 72 70 69 70 74 76
41 40 39 44 49 43 35 27 26 31 44 58 63 68 78 81 81 82 82 83 88 90 89 86 82 77 80 72 75 72 77 80
41 42 40 45 48 43 34 27 24 30 40 49 57 65 72 80 84 87 89 90 87 86 88 91 92 86 82 80 83 79 78 81
45 39 39 44 48 41 30 27 25 30 35 44 53 59 71 78 84 93 99 99 97 93 92 93 97 89 85 89 87 87 88 92
44 43 41 47 47 40 32 26 26 29 33 40 48 57 67 76 83 91 99 99 99 98 95 96 97 92 89 93 94 93 96 92
42 42 45 45 43 39 29 26 26 31 34 38 46 56 67 79 86 92 96 99 98 99 98 98 97 97 94 96 98 98 98 96
40 39 45 47 45 41 29 25 26 31 34 37 45 55 68 79 86 92 99 98 99 99 99 98 98 98 97 97 99 98 97 95
44 43 47 50 50 41 31 25 26 31 33 37 44 48 64 75 84 89 98 99 98 98 99 99 99 99 95 96 98 98 97 96
60 55 55 54 51 37 32 27 27 29 35 38 43 47 52 69 78 86 91 98 97 99 98 98 98 98 98 98 97 96 96 95
71 67 57 51 44 40 30 28 30 31 37 40 44 48 50 52 58 67 79 90 96 99 98 99 98 99 97 96 97 96 96 95
73 73 71 51 44 42 32 30 31 32 34 40 44 47 50 52 51 54 59 72 81 85 91 96 96 93 91 91 91 91 90 88
65 76 74 73 49 46 38 31 31 33 35 39 44 46 47 50 56 60 59 59 62 69 74 80 83 82 82 80 81 80 80 77
66 75 81 80 71 51 44 38 34 35 38 42 44 47 45 46 50 58 64 65 68 71 69 67 70 71 70 70 71 71 74 74
69 77 77 84 75 69 59 47 42 39 41 44 47 49 47 49 50 52 59 68 66 65 67 72 79 74 81 84 82 84 84 84
73 74 75 79 76 75 73 66 53 47 47 50 49 51 53 52 53 54 55 57 59 62 63 63 61 61 64 79 84 88 88 85
78 76 74 70 69 70 75 75 73 61 54 56 55 54 55 56 59 60 59 56 57 55 56 59 63 65 70 71 74 74 73 77
73 73 70 67 68 69 74 78 80 79 67 62 62 59 58 59 64 63 63 62 60 59 63 68 72 73 76 78 79 80 80 81

GFSFLT1_prec_cthk_111.txt.gz
RH
39 36 34 35 38 43 51 49 46 36 30 40 55 63 71 74 92 97 96 98 98 95 85 71 68 46 40 42 45 50 52 55
40 39 34 36 43 48 50 49 44 32 30 37 55 60 68 69 85 97 95 98 95 92 82 79 73 50 50 47 46 53 58 61
44 42 37 36 45 50 51 49 43 30 30 36 51 61 67 69 73 83 95 94 94 92 87 84 72 52 49 53 52 54 59 63
48 45 41 41 45 47 50 47 42 32 32 36 45 61 65 71 73 79 91 94 93 92 88 79 74 57 56 58 58 57 58 62
49 45 43 40 45 48 52 47 40 30 32 36 41 50 62 71 77 78 83 90 92 94 94 85 82 66 63 62 64 64 65 70
48 43 41 44 48 50 52 47 36 30 31 36 40 47 56 66 77 82 88 88 93 94 92 91 86 75 73 78 75 75 71 73
50 46 43 45 49 57 52 47 33 31 33 35 38 42 52 60 75 83 88 89 95 95 97 96 95 89 81 83 84 85 81 82
52 45 44 43 46 56 53 45 30 30 33 34 36 41 49 59 71 81 87 93 95 96 96 97 95 94 91 88 88 89 90 92
61 49 46 45 47 53 54 43 28 31 32 34 36 43 51 62 77 83 88 95 97 99 96 96 97 94 96 96 95 93 95 96
60 59 55 50 47 51 55 45 32 29 33 33 36 43 51 63 77 84 90 96 98 98 98 97 97 98 97 99 97 97 97 98
63 68 65 59 57 60 57 45 33 29 33 34 38 43 51 61 74 84 89 96 98 96 98 96 98 98 97 98 98 97 98 99
69 68 72 65 63 69 62 45 35 30 32 34 38 43 47 53 65 72 83 92 97 97 98 97 99 97 99 99 99 96 97 99
74 70 75 71 72 75 66 42 36 32 34 36 39 43 45 47 51 58 70 82 93 97 98 98 97 99 98 98 98 97 98 97
76 71 74 78 75 72 63 52 41 35 36 38 41 44 44 46 51 53 56 66 74 86 91 95 97 98 98 97 98 93 93 97
85 74 74 80 80 74 69 54 46 45 39 40 42 44 44 46 49 54 61 60 61 66 73 85 90 91 94 94 92 92 93 91
93 81 80 83 84 80 77 63 51 48 48 47 47 47 47 47 49 52 58 64 68 72 70 68 73 79 84 85 81 79 76 74
93 89 83 84 88 86 83 73 62 50 50 53 54 53 51 50 50 52 54 56 60 66 66 70 73 78 79 80 77 77 78 79
88 86 81 82 84 89 85 81 78 66 54 55 57 61 60 56 52 52 57 57 55 56 57 60 62 62 62 65 67 71 78 78
84 79 87 82 86 86 87 87 82 81 76 63 61 63 64 64 60 58 58 58 59 58 57 56 57 60 65 70 72 71 73 76

GFSFLT1_prec_cthk_114.txt.gz
RH
15 22 28 30 35 37 37 38 42 44 54 50 36 39 55 63 71 75 84 99 98 98 98 96 88 89 57 49 52 62 63 59
12 19 27 32 37 42 39 40 43 46 52 47 34 39 53 64 71 73 84 97 97 99 97 96 87 86 59 55 65 69 69 62
11 19 28 33 39 42 40 44 43 48 53 44 36 39 48 64 67 72 81 97 96 95 95 97 87 82 64 58 64 67 63 55
13 21 32 36 41 43 43 42 44 50 55 44 36 39 46 60 67 70 74 97 96 97 98 98 90 71 57 42 45 49 52 59
20 20 30 38 43 47 47 47 46 53 55 42 36 37 42 54 64 72 75 84 97 98 97 91 81 77 62 52 54 53 51 58
27 29 32 39 43 47 46 48 50 55 55 42 36 37 41 51 61 70 78 82 92 96 93 91 87 86 72 53 52 54 57 58
31 37 38 44 47 49 49 50 53 58 55 42 35 36 41 48 58 64 78 85 87 93 95 91 88 84 77 59 54 57 61 63
37 42 48 54 54 51 52 54 52 57 53 40 35 37 41 49 54 63 74 85 88 89 90 93 92 88 86 79 64 64 65 71
41 49 52 63 61 53 53 55 55 54 52 38 35 38 42 47 55 65 77 83 87 91 93 91 93 91 91 91 82 75 77 79
42 50 55 64 66 58 57 56 56 55 50 37 37 39 42 47 57 68 80 87 90 92 96 98 94 93 93 92 92 86 88 91
38 49 59 68 64 62 62 58 62 63 46 37 38 40 44 50 59 68 80 87 92 97 99 98 99 97 97 98 98 91 90 95
45 51 66 69 66 67 63 60 66 67 48 39 40 43 47 52 57 62 69 80 89 97 99 98 98 96 98 99 98 97 96 94
61 63 77 75 71 71 67 65 73 64 47 41 44 48 50 52 55 55 58 70 83 88 98 99 99 98 99 97 98 98 99 97
70 83 88 84 81 74 72 72 78 59 44 44 46 51 54 53 54 54 57 61 72 78 93 98 98 99 97 99 98 98 98 96
87 95 97 92 88 82 77 78 80 53 44 47 48 51 55 57 58 55 57 64 65 67 77 87 95 99 98 98 98 99 97 96
92 97 91 93 90 88 84 85 78 54 45 48 49 50 55 58 60 59 59 61 66 70 69 76 83 89 95 97 97 95 99 97
90 94 93 97 89 94 91 86 80 58 48 49 52 51 54 57 60 60 60 60 62 65 70 74 75 78 81 86 93 93 94 92
94 94 93 94 96 96 94 88 85 67 55 51 54 55 55 55 58 61 61 61 59 60 62 66 73 76 77 78 80 79 78 78
88 93 92 90 96 96 98 93 87 79 64 58 57 59 58 59 61 62 61 64 63 61 60 61 63 64 66 70 71 73 74 74

GFSFLT1_prec_cthk_117.txt.gz
RH
9 10 11 10 11 17 26 35 37 38 44 48 51 52 52 39 41 54 66 75 80 89 97 98 99 97 94 86 61 48 50 55
10 10 10 10 12 17 28 35 40 43 46 48 50 52 49 38 42 55 67 73 79 96 99 97 99 99 95 89 63 51 53 62
13 12 11 11 13 21 32 38 44 46 49 49 50 54 42 37 44 56 68 74 85 97 99 97 98 96 98 89 62 58 57 59
16 12 13 14 18 24 32 41 49 50 52 54 54 53 41 37 43 55 66 73 86 97 99 97 98 97 95 85 60 56 50 64
21 18 14 19 22 28 34 43 50 51 54 54 56 50 40 38 43 54 61 71 82 96 98 98 98 97 92 85 59 56 53 66
23 21 21 22 23 29 38 47 51 53 53 52 54 48 40 38 45 53 60 68 80 88 97 96 98 98 89 86 62 65 70 69
22 25 27 28 31 32 41 47 55 58 57 54 52 45 38 38 45 51 60 69 82 90 96 99 98 94 88 87 69 55 56 57
25 25 28 32 36 43 45 50 56 58 60 59 55 44 36 38 44 50 60 70 79 87 90 96 98 98 91 87 71 55 51 50
27 26 30 34 41 46 54 57 59 59 61 63 61 45 36 40 44 50 62 72 85 87 91 91 95 95 95 94 85 61 55 56
33 33 32 33 37 49 58 62 61 59 64 66 63 49 38 41 46 53 64 74 86 91 93 95 91 88 89 88 91 80 63 55
32 38 40 37 39 53 61 67 66 60 65 66 63 46 40 44 50 56 68 77 88 91 92 95 93 90 87 88 88 92 85 67
34 38 41 41 45 56 68 71 68 62 66 65 62 42 40 45 51 57 63 70 79 86 90 95 97 97 98 97 96 95 95 89
40 42 40 45 50 64 77 76 71 67 70 67 60 40 40 47 54 57 59 63 67 80 83 90 99 99 98 98 97 97 98 94
42 41 44 52 57 71 83 80 74 72 69 71 53 39 41 49 55 58 57 61 67 73 77 87 96 98 98 98 99 96 98 99
44 48 57 66 71 86 87 82 80 81 77 75 54 40 43 50 55 58 56 58 66 74 75 81 93 98 99 98 99 98 99 99
46 53 79 85 83 94 94 87 84 88 86 73 56 42 45 52 56 58 58 58 63 69 74 77 81 93 98 98 96 99 99 98
57 70 84 93 91 94 97 91 90 92 90 75 56 46 48 54 57 58 59 58 61 64 68 74 82 80 86 98 99 99 98 97
62 78 85 88 92 96 98 96 92 94 91 75 58 49 51 56 58 60 61 60 60 63 67 70 72 77 83 84 92 98 94 98
75 81 82 88 92 94 98 98 97 92 90 77 59 52 52 57 58 59 62 63 63 62 63 65 67 70 74 80 88 92 95 91

GFSFLT1_prec_cthk_120.txt.gz
RH
16 15 16 13 12 11 10 10 11 22 33 41 46 45 49 52 53 58 45 42 55 72 77 82 93 98 99 97 92 79 71 64
13 15 13 13 13 12 9 9 12 24 35 43 47 46 49 52 53 55 37 40 55 70 78 82 92 98 98 98 91 88 74 65
18 16 13 13 15 13 12 14 17 31 37 47 50 52 52 54 54 48 33 41 52 70 78 87 96 98 97 98 93 91 75 56
18 17 17 18 19 20 19 19 24 35 41 49 54 55 55 57 50 38 34 45 55 73 82 94 99 99 96 98 96 90 73 56
21 20 22 21 23 22 22 24 25 35 43 53 57 57 54 54 46 32 37 45 55 71 83 95 98 99 97 98 98 90 84 57
22 21 22 25 23 21 25 27 27 39 49 57 60 62 61 59 44 34 36 41 53 67 84 96 97 98 98 99 99 95 89 55
26 27 25 23 22 26 25 28 35 43 52 62 64 66 64 60 49 38 36 40 48 64 82 94 99 98 99 98 97 96 86 65
31 26 25 22 24 27 30 32 38 45 55 62 66 67 65 58 48 38 38 40 47 66 82 90 95 98 99 99 98 94 79 65
27 26 29 28 24 28 30 38 42 44 56 64 68 68 63 60 45 41 38 42 51 69 83 89 95 99 97 98 98 94 79 59
30 27 29 29 27 26 33 41 46 48 55 68 72 70 67 64 41 41 42 45 62 77 84 90 92 96 98 98 96 92 81 69
30 30 31 29 27 26 31 44 51 52 58 69 72 70 68 63 39 40 44 50 70 80 93 95 95 94 95 98 95 93 89 73
36 33 31 29 29 30 30 37 49 58 65 70 73 72 71 61 38 39 45 54 67 85 90 93 96 95 96 93 95 95 94 83
37 36 35 33 34 36 33 38 46 59 67 72 76 76 75 60 39 38 46 54 60 69 82 88 93 91 97 98 92 91 92 93
31 35 40 38 35 41 41 41 49 60 71 77 78 76 75 58 41 40 48 54 55 59 68 80 84 88 94 98 96 94 90 86
27 36 44 43 41 48 48 49 56 60 77 78 80 79 71 62 43 43 49 54 55 59 68 75 80 88 98 98 99 97 96 94
31 39 47 47 46 53 57 59 66 67 84 83 84 81 67 63 46 47 52 52 55 58 66 73 74 86 97 98 98 99 99 98
40 43 47 46 50 55 65 68 70 83 89 89 86 74 70 67 49 50 54 55 56 57 61 65 74 81 94 97 99 99 99 99
41 49 49 52 55 61 76 78 84 94 93 93 89 77 73 70 54 53 55 57 58 59 58 59 68 77 81 92 98 98 98 98
45 53 54 56 62 70 74 83 88 95 95 96 91 79 74 73 58 55 57 58 60 60 59 57 60 65 72 78 81 94 95 96

GFSFLT1_prec_cthk_123.txt.gz
RH
20 21 20 21 20 19 17 15 13 17 18 22 30 30 37 46 49 53 54 54 53 51 44 54 71 76 87 95 97 95 94 78
20 21 25 24 22 18 17 12 10 11 13 17 26 31 39 47 49 56 54 52 50 46 41 50 64 71 83 91 98 97 92 82
22 29 29 26 23 20 21 16 14 14 19 24 30 34 42 49 52 55 58 55 47 37 39 49 63 74 77 87 98 98 94 86
30 31 30 27 24 22 22 22 23 22 24 27 31 40 47 54 55 57 58 55 46 35 40 51 62 76 85 93 98 98 94 88
29 24 30 28 24 22 22 26 26 27 26 32 34 42 52 54 58 60 59 56 40 38 41 52 62 78 91 96 99 97 95 90
26 23 24 23 23 25 25 27 32 32 29 37 41 50 57 62 64 63 61 51 40 39 44 54 64 82 94 98 98 99 94 93
27 28 24 27 26 26 28 30 31 31 30 35 44 51 60 66 69 65 62 49 38 38 44 52 67 84 94 99 99 98 93 96
34 34 29 28 26 29 31 32 33 33 32 38 48 54 63 71 67 66 58 48 35 36 42 51 68 82 98 97 99 99 96 96
39 35 32 31 27 26 26 32 33 33 36 38 50 58 66 72 71 68 61 49 35 36 42 54 71 82 95 98 99 99 98 96
42 35 34 32 30 28 23 25 32 33 36 38 50 59 68 73 75 67 65 52 37 37 44 58 78 82 95 98 98 99 99 98
37 36 41 35 33 29 29 25 30 32 37 42 44 58 66 75 76 71 67 53 40 41 50 66 81 86 92 98 99 98 99 98
36 41 42 40 40 35 34 32 29 30 34 45 50 56 64 75 78 74 69 50 43 45 54 73 86 90 91 97 98 99 98 98
29 37 41 46 39 36 37 35 33 33 34 41 52 60 65 72 76 76 68 49 43 50 56 67 83 82 90 95 96 98 98 97
26 34 40 44 47 40 39 41 39 38 37 37 51 60 66 73 77 77 65 49 46 52 55 58 65 80 82 95 93 94 98 95
25 28 42 52 52 44 41 41 43 42 42 46 52 62 71 78 80 75 65 49 48 54 55 56 60 71 77 79 89 94 97 95
35 42 53 52 51 46 43 44 45 49 51 56 52 63 72 80 81 73 64 51 50 53 54 55 61 70 74 75 85 93 99 98
44 55 49 46 47 48 46 48 45 51 58 63 61 68 75 81 82 71 65 56 52 53 54 57 60 66 73 76 90 97 95 98
46 45 43 43 46 47 48 49 48 52 63 68 68 72 81 87 81 75 70 59 54 54 55 58 58 60 68 75 92 97 98 99
52 47 44 43 46 49 47 48 50 53 68 75 77 78 89 91 81 77 74 63 56 56 58 58 57 58 65 73 80 94 98 98

GFSFLT1_prec_cthk_126.txt.gz
RH
26 25 24 26 27 24 23 25 25 25 26 26 23 22 23 22 28 40 45 53 53 54 56 59 56 50 58 77 87 91 92 98
24 24 24 25 26 23 23 20 19 17 19 22 22 23 15 20 23 37 46 55 54 55 54 57 55 46 53 76 81 93 88 97
24 24 28 29 27 28 26 22 20 17 15 13 16 18 23 19 26 38 50 57 57 55 55 53 49 45 51 68 76 91 91 93
30 33 35 35 33 31 27 25 21 22 20 21 23 25 29 28 34 43 50 59 60 60 56 53 43 39 50 59 73 84 87 90
39 42 40 42 38 30 27 27 28 29 25 27 28 25 28 30 37 46 56 61 59 61 57 52 39 42 46 57 73 80 94 93
46 45 39 32 35 26 23 24 31 34 29 30 34 32 34 39 43 48 54 63 63 62 59 50 38 40 44 56 68 81 95 96
49 45 37 42 37 28 25 25 24 25 28 32 35 36 40 42 45 49 55 64 65 65 61 45 39 44 50 60 70 87 96 97
53 48 41 39 32 26 22 25 29 27 28 34 37 38 42 45 46 51 62 63 66 67 56 48 43 47 54 65 79 91 99 96
53 49 38 35 37 31 24 21 29 36 32 34 41 39 45 48 56 58 65 65 68 63 57 51 46 48 56 69 86 93 99 99
46 45 45 38 32 32 29 28 27 37 32 33 40 43 49 55 59 61 64 64 68 62 57 47 45 49 59 73 84 95 98 98
41 42 46 41 38 40 35 35 33 31 35 37 38 46 49 57 60 64 66 66 70 64 58 44 45 56 67 81 88 98 99 98
41 41 45 43 42 42 40 37 37 33 32 35 37 44 50 56 61 65 67 68 71 66 59 45 49 60 73 85 91 94 97 98
41 36 38 44 48 48 44 39 36 35 37 37 38 38 51 57 58 64 68 73 72 68 60 45 51 60 74 90 95 94 95 96
41 41 37 45 50 50 47 40 35 35 37 43 44 39 45 55 60 64 68 73 79 72 61 47 52 59 62 72 87 87 96 95
41 36 34 44 55 52 47 41 36 38 37 44 49 47 44 53 61 66 70 74 80 71 62 48 51 58 59 65 75 81 80 87
37 38 53 52 50 48 44 38 39 41 40 41 52 55 50 49 60 66 70 74 78 70 66 57 55 56 58 62 72 77 78 77
40 58 50 45 41 36 29 37 39 40 42 39 51 57 59 54 62 69 71 74 79 72 66 56 56 56 57 64 67 75 77 81
49 45 40 38 38 34 32 34 40 42 43 41 45 58 65 60 63 70 74 75 76 72 68 58 55 57 63 65 69 74 81 94
52 47 43 42 39 33 34 36 42 44 45 44 46 62 72 67 71 74 74 77 80 77 72 61 57 60 62 63 66 75 80 94

GFSFLT1_prec_cthk_129.txt.gz
RH
39 39 38 37 36 34 35 40 42 40 34 35 35 31 27 26 27 31 37 37 43 51 56 57 59 60 63 54 56 71 84 90
46 47 43 37 34 34 36 35 33 31 31 35 37 30 27 22 24 32 33 38 47 52 59 60 58 63 57 56 51 67 77 80
44 43 40 34 31 32 33 31 30 32 32 28 25 25 19 15 18 21 30 33 48 53 61 62 59 60 59 53 49 59 73 79
45 44 40 35 32 31 28 27 27 26 25 21 21 23 24 22 22 23 28 32 42 55 61 63 62 62 58 49 48 52 67 74
45 47 44 42 39 33 28 30 22 21 22 25 28 25 26 24 21 25 38 40 45 53 61 65 68 66 60 47 44 52 62 71
50 48 46 49 50 43 36 23 24 27 31 32 32 32 30 31 28 37 46 43 49 51 66 66 69 66 58 46 42 54 57 69
52 52 54 54 51 45 32 24 25 27 30 35 44 40 36 36 38 43 48 48 48 52 63 66 68 65 57 40 45 50 60 74
55 51 50 54 52 45 34 28 30 27 31 34 32 36 38 37 41 48 44 46 50 53 65 68 67 64 52 44 47 52 61 77
56 55 50 52 48 36 24 27 33 38 31 31 34 35 43 41 44 49 50 48 55 58 66 70 68 63 54 46 47 52 65 82
63 58 54 51 47 36 36 34 32 34 36 30 34 38 41 45 47 54 55 58 59 64 70 73 67 58 56 46 49 58 75 86
64 58 55 52 42 33 32 31 26 24 26 30 30 35 38 46 51 58 58 60 65 67 70 71 67 60 55 48 52 65 82 90
66 61 42 39 39 41 42 38 36 32 29 32 35 34 38 42 54 59 62 63 65 69 74 71 66 61 54 47 54 67 86 91
59 48 47 46 50 46 44 49 45 44 37 34 34 37 37 44 49 59 65 67 70 71 71 77 68 62 53 50 56 65 81 87
58 53 48 48 53 51 50 47 45 43 40 33 35 36 44 45 46 57 63 72 68 71 76 77 73 66 55 53 58 63 68 82
49 56 60 52 49 45 44 46 42 39 34 30 33 37 42 54 50 50 62 74 70 68 71 80 79 69 58 55 58 61 64 73
58 57 59 58 49 46 42 41 39 32 26 28 30 36 42 54 54 46 58 69 78 72 74 82 82 71 60 58 59 64 66 73
67 71 68 54 45 41 37 36 29 24 24 28 30 34 44 48 61 58 56 73 81 73 75 80 84 77 65 58 59 62 67 70
57 55 49 46 42 36 33 32 28 24 22 27 32 34 41 46 58 67 57 67 75 75 72 83 84 80 71 62 60 65 68 68
60 56 54 50 46 41 36 33 30 30 27 26 35 36 39 45 63 76 65 66 74 72 72 84 82 79 73 61 61 63 64 69

GFSFLT1_prec_cthk_132.txt.gz
RH
39 40 38 38 37 36 36 36 36 39 39 43 58 51 44 38 34 32 32 36 40 43 40 49 53 58 63 64 68 57 54 70
38 41 43 45 41 38 38 39 40 47 56 47 50 43 46 41 40 35 32 34 40 41 53 70 64 59 64 68 69 58 51 66
40 44 47 48 46 46 45 46 45 46 49 46 49 44 36 38 39 32 30 29 33 39 54 65 69 67 64 68 68 63 51 58
44 49 53 51 52 51 49 49 45 42 44 42 38 37 34 33 30 27 22 22 28 33 46 58 64 66 65 67 72 63 52 50
46 52 55 50 53 52 50 50 44 37 40 42 42 38 35 29 23 18 20 31 45 37 40 50 62 69 71 73 77 68 54 49
49 50 59 56 54 51 47 45 43 37 35 38 41 41 33 27 28 24 28 35 38 36 41 51 59 68 71 75 76 71 57 48
45 49 64 61 60 54 50 48 47 45 33 30 31 31 33 35 36 35 37 46 46 41 44 51 59 67 74 76 76 70 58 53
44 48 54 61 64 58 52 49 50 49 41 26 30 32 30 32 42 50 46 51 51 44 50 54 60 70 74 76 76 69 61 44
43 52 58 58 65 62 56 52 49 47 44 30 24 25 32 34 41 50 50 44 47 47 50 56 64 72 74 75 78 68 54 49
57 59 60 63 63 61 53 47 46 36 23 26 33 32 28 35 39 46 46 50 50 53 56 56 65 66 73 77 76 67 54 51
70 67 65 61 65 58 53 49 45 38 34 36 38 40 36 28 34 39 49 53 59 62 58 60 64 66 75 77 72 66 53 52
83 81 75 71 65 62 54 49 46 44 42 38 31 27 27 30 35 40 48 52 66 66 62 65 68 71 76 75 70 66 51 58
83 84 81 78 70 59 52 48 50 50 48 45 40 33 28 29 32 37 41 52 62 65 73 66 70 73 74 74 71 66 54 56
77 78 82 85 70 62 56 56 53 48 40 41 42 35 32 38 37 42 39 48 59 68 79 70 68 72 75 73 71 67 56 59
85 83 87 80 73 65 58 57 47 40 40 36 35 31 30 32 36 39 42 40 52 71 75 79 73 73 74 76 72 69 59 58
84 81 85 81 74 69 65 56 42 33 32 25 26 27 28 31 34 38 44 46 46 61 75 78 74 72 75 79 77 72 62 60
83 80 74 71 71 67 55 43 36 32 33 27 23 22 23 28 31 35 41 52 48 56 72 82 72 71 70 85 82 76 63 58
80 75 70 69 62 56 49 40 36 35 31 39 31 25 22 25 30 35 39 51 57 50 59 72 81 75 72 83 81 77 65 59
68 66 62 56 50 47 43 40 37 35 33 41 33 29 25 25 29 37 41 52 63 53 58 73 98 71 74 81 85 80 68 60